Time,TemperatureF,DewpointF,PressureIn,WindDirection,WindDirectionDegrees,WindSpeedMPH,WindSpeedGustMPH,Humidity,HourlyPrecipIn,Conditions,Clouds,dailyrainin,SoftwareType,DateUTC
2013-08-16 00:00:00,75.6,70.8,29.89,NNE,32,1.0,3.0,85,0.00,,,0.04,Wunderground v.1.15,2013-08-16 05:00:00,
2013-08-16 00:01:00,75.6,70.8,29.89,East,82,1.0,3.0,85,0.00,,,0.04,Wunderground v.1.15,2013-08-16 05:01:00,
2013-08-16 00:02:00,75.6,70.8,29.89,East,82,1.0,3.0,85,0.00,,,0.04,Wunderground v.1.15,2013-08-16 05:02:00,
2013-08-16 00:05:00,75.6,70.8,29.89,NE,54,1.0,4.0,85,0.00,,,0.00,Wunderground v.1.15,2013-08-16 05:05:00,
2013-08-16 00:06:00,75.6,70.8,29.89,NE,38,2.0,4.0,85,0.00,,,0.00,Wunderground v.1.15,2013-08-16 05:06:00,
2013-08-16 00:07:00,75.6,70.8,29.89,NE,38,2.0,4.0,85,0.00,,,0.00,Wunderground v.1.15,2013-08-16 05:07:00,
2013-08-16 00:09:00,75.6,70.8,29.89,East,83,2.0,2.0,85,0.00,,,0.00,Wunderground v.1.15,2013-08-16 05:09:00,
2013-08-16 00:11:00,75.6,70.8,29.89,ENE,75,2.0,4.0,85,0.00,,,0.00,Wunderground v.1.15,2013-08-16 05:11:00,
2013-08-16 00:13:00,75.6,70.8,29.89,NE,56,2.0,4.0,85,0.00,,,0.00,Wunderground v.1.15,2013-08-16 05:13:00,
2013-08-16 00:14:00,75.6,70.8,29.89,NE,56,2.0,4.0,85,0.00,,,0.00,Wunderground v.1.15,2013-08-16 05:14:00,
2013-08-16 00:15:00,75.6,70.8,29.89,NE,56,2.0,4.0,85,0.00,,,0.00,Wunderground v.1.15,2013-08-16 05:15:00,
2013-08-16 00:20:00,75.4,70.6,29.88,NE,34,1.0,5.0,85,0.00,,,0.00,Wunderground v.1.15,2013-08-16 05:20:00,
2013-08-16 00:21:00,75.4,70.6,29.88,NE,34,1.0,5.0,85,0.00,,,0.00,Wunderground v.1.15,2013-08-16 05:21:00,
2013-08-16 00:22:00,75.4,70.6,29.88,NE,34,1.0,5.0,85,0.00,,,0.00,Wunderground v.1.15,2013-08-16 05:22:00,
2013-08-16 00:24:00,75.4,70.6,29.88,ENE,72,2.0,5.0,85,0.00,,,0.00,Wunderground v.1.15,2013-08-16 05:24:00,
2013-08-16 00:26:00,75.4,70.6,29.88,ENE,73,1.0,5.0,85,0.00,,,0.00,Wunderground v.1.15,2013-08-16 05:26:00,
2013-08-16 00:30:00,75.4,70.6,29.88,ENE,75,1.0,2.0,85,0.00,,,0.00,Wunderground v.1.15,2013-08-16 05:30:00,
2013-08-16 00:31:00,75.4,70.6,29.88,ENE,75,1.0,3.0,85,0.00,,,0.00,Wunderground v.1.15,2013-08-16 05:31:00,
2013-08-16 00:32:00,75.3,70.5,29.87,ENE,75,2.0,3.0,85,0.00,,,0.00,Wunderground v.1.15,2013-08-16 05:32:00,
2013-08-16 00:33:00,75.3,70.5,29.87,ENE,75,1.0,3.0,85,0.00,,,0.00,Wunderground v.1.15,2013-08-16 05:33:00,
2013-08-16 00:35:00,75.3,70.5,29.87,ENE,75,1.0,3.0,85,0.00,,,0.00,Wunderground v.1.15,2013-08-16 05:35:00,
2013-08-16 00:36:00,75.3,70.5,29.87,ENE,75,1.0,3.0,85,0.00,,,0.00,Wunderground v.1.15,2013-08-16 05:36:00,
2013-08-16 00:41:00,75.3,70.5,29.87,ENE,75,0.0,1.0,85,0.00,,,0.00,Wunderground v.1.15,2013-08-16 05:41:00,
2013-08-16 00:42:00,75.3,70.5,29.87,ENE,75,0.0,1.0,85,0.00,,,0.00,Wunderground v.1.15,2013-08-16 05:42:00,
2013-08-16 00:46:00,75.1,70.3,29.87,ENE,75,0.0,1.0,85,0.00,,,0.00,Wunderground v.1.15,2013-08-16 05:46:00,
2013-08-16 00:49:00,75.1,70.3,29.87,ENE,75,0.0,0.0,85,0.00,,,0.00,Wunderground v.1.15,2013-08-16 05:49:00,
2013-08-16 00:51:00,75.1,70.3,29.87,ENE,75,0.0,0.0,85,0.00,,,0.00,Wunderground v.1.15,2013-08-16 05:51:00,
2013-08-16 00:52:00,75.1,70.3,29.87,ENE,75,0.0,0.0,85,0.00,,,0.00,Wunderground v.1.15,2013-08-16 05:52:00,
2013-08-16 00:53:00,75.1,70.3,29.87,ENE,75,0.0,0.0,85,0.00,,,0.00,Wunderground v.1.15,2013-08-16 05:53:00,
2013-08-16 00:55:00,75.1,70.3,29.87,ENE,75,0.0,0.0,85,0.00,,,0.00,Wunderground v.1.15,2013-08-16 05:55:00,
2013-08-16 00:56:00,75.1,70.3,29.87,ENE,75,0.0,0.0,85,0.00,,,0.00,Wunderground v.1.15,2013-08-16 05:56:00,
2013-08-16 01:00:00,75.1,70.3,29.87,ENE,75,0.0,0.0,85,0.00,,,0.00,Wunderground v.1.15,2013-08-16 06:00:00,
2013-08-16 01:01:00,75.1,70.3,29.87,ENE,75,0.0,0.0,85,0.00,,,0.00,Wunderground v.1.15,2013-08-16 06:01:00,
2013-08-16 01:02:00,75.1,70.3,29.87,ENE,75,0.0,0.0,85,0.00,,,0.00,Wunderground v.1.15,2013-08-16 06:02:00,
2013-08-16 01:04:00,75.1,70.3,29.87,ENE,75,0.0,1.0,85,0.00,,,0.00,Wunderground v.1.15,2013-08-16 06:04:00,
2013-08-16 01:05:00,75.1,70.3,29.87,ENE,75,0.0,1.0,85,0.00,,,0.00,Wunderground v.1.15,2013-08-16 06:05:00,
2013-08-16 01:09:00,75.1,70.3,29.87,ENE,75,0.0,1.0,85,0.00,,,0.00,Wunderground v.1.15,2013-08-16 06:09:00,
2013-08-16 01:12:00,75.1,70.6,29.87,ENE,75,0.0,0.0,86,0.00,,,0.00,Wunderground v.1.15,2013-08-16 06:12:00,
2013-08-16 01:14:00,74.9,70.1,29.87,ENE,75,0.0,0.0,85,0.00,,,0.00,Wunderground v.1.15,2013-08-16 06:14:00,
2013-08-16 01:20:00,74.9,70.4,29.86,ENE,75,0.0,0.0,86,0.00,,,0.00,Wunderground v.1.15,2013-08-16 06:20:00,
2013-08-16 01:21:00,74.9,70.4,29.86,ENE,75,0.0,0.0,86,0.00,,,0.00,Wunderground v.1.15,2013-08-16 06:21:00,
2013-08-16 01:22:00,74.9,70.4,29.86,ENE,75,0.0,0.0,86,0.00,,,0.00,Wunderground v.1.15,2013-08-16 06:22:00,
2013-08-16 01:24:00,74.9,70.4,29.86,ENE,75,0.0,0.0,86,0.00,,,0.00,Wunderground v.1.15,2013-08-16 06:24:00,
2013-08-16 01:26:00,74.9,70.4,29.86,ENE,75,0.0,0.0,86,0.00,,,0.00,Wunderground v.1.15,2013-08-16 06:26:00,
2013-08-16 01:27:00,74.7,70.2,29.86,ENE,75,0.0,0.0,86,0.00,,,0.00,Wunderground v.1.15,2013-08-16 06:27:00,
2013-08-16 01:29:00,74.7,70.2,29.86,ENE,75,0.0,0.0,86,0.00,,,0.00,Wunderground v.1.15,2013-08-16 06:29:00,
2013-08-16 01:30:00,74.7,70.2,29.86,ENE,75,0.0,0.0,86,0.00,,,0.00,Wunderground v.1.15,2013-08-16 06:30:00,
2013-08-16 01:31:00,74.7,70.2,29.86,ENE,75,0.0,0.0,86,0.00,,,0.00,Wunderground v.1.15,2013-08-16 06:31:00,
2013-08-16 01:34:00,74.7,70.2,29.86,ENE,75,0.0,0.0,86,0.00,,,0.00,Wunderground v.1.15,2013-08-16 06:34:00,
2013-08-16 01:35:00,74.7,70.2,29.86,ENE,75,0.0,0.0,86,0.00,,,0.00,Wunderground v.1.15,2013-08-16 06:35:00,
2013-08-16 01:39:00,74.7,70.2,29.86,ENE,75,0.0,0.0,86,0.00,,,0.00,Wunderground v.1.15,2013-08-16 06:39:00,
2013-08-16 01:40:00,74.7,70.2,29.86,ENE,75,0.0,0.0,86,0.00,,,0.00,Wunderground v.1.15,2013-08-16 06:40:00,
2013-08-16 01:41:00,74.7,70.2,29.86,ENE,75,0.0,0.0,86,0.00,,,0.00,Wunderground v.1.15,2013-08-16 06:41:00,
2013-08-16 01:43:00,74.7,70.2,29.86,ENE,75,0.0,0.0,86,0.00,,,0.00,Wunderground v.1.15,2013-08-16 06:43:00,
2013-08-16 01:46:00,74.7,70.2,29.86,ENE,75,0.0,0.0,86,0.00,,,0.00,Wunderground v.1.15,2013-08-16 06:46:00,
2013-08-16 01:47:00,74.7,70.2,29.85,ENE,75,0.0,0.0,86,0.00,,,0.00,Wunderground v.1.15,2013-08-16 06:47:00,
2013-08-16 01:49:00,74.7,70.2,29.85,ENE,75,0.0,0.0,86,0.00,,,0.00,Wunderground v.1.15,2013-08-16 06:49:00,
2013-08-16 01:53:00,74.7,70.2,29.85,ENE,75,0.0,0.0,86,0.00,,,0.00,Wunderground v.1.15,2013-08-16 06:53:00,
2013-08-16 01:55:00,74.7,70.2,29.85,ENE,75,0.0,0.0,86,0.00,,,0.00,Wunderground v.1.15,2013-08-16 06:55:00,
2013-08-16 01:56:00,74.7,70.2,29.85,ENE,75,0.0,0.0,86,0.00,,,0.00,Wunderground v.1.15,2013-08-16 06:56:00,
2013-08-16 01:59:00,74.7,70.2,29.85,ENE,75,0.0,0.0,86,0.00,,,0.00,Wunderground v.1.15,2013-08-16 06:59:00,
2013-08-16 02:00:00,74.7,70.2,29.85,ENE,75,0.0,0.0,86,0.00,,,0.00,Wunderground v.1.15,2013-08-16 07:00:00,
2013-08-16 02:01:00,74.7,70.2,29.85,ENE,75,0.0,0.0,86,0.00,,,0.00,Wunderground v.1.15,2013-08-16 07:01:00,
2013-08-16 02:02:00,74.7,70.2,29.85,ENE,75,0.0,0.0,86,0.00,,,0.00,Wunderground v.1.15,2013-08-16 07:02:00,
2013-08-16 02:06:00,74.7,70.2,29.85,ENE,75,0.0,1.0,86,0.00,,,0.00,Wunderground v.1.15,2013-08-16 07:06:00,
2013-08-16 02:07:00,74.7,70.2,29.85,ENE,75,0.0,1.0,86,0.00,,,0.00,Wunderground v.1.15,2013-08-16 07:07:00,
2013-08-16 02:09:00,74.7,70.2,29.85,ENE,75,0.0,0.0,86,0.00,,,0.00,Wunderground v.1.15,2013-08-16 07:09:00,
2013-08-16 02:10:00,74.7,70.2,29.85,ENE,75,0.0,0.0,86,0.00,,,0.00,Wunderground v.1.15,2013-08-16 07:10:00,
2013-08-16 02:14:00,74.7,70.2,29.85,ENE,75,0.0,0.0,86,0.00,,,0.00,Wunderground v.1.15,2013-08-16 07:14:00,
2013-08-16 02:15:00,74.7,70.2,29.85,ENE,75,0.0,0.0,86,0.00,,,0.00,Wunderground v.1.15,2013-08-16 07:15:00,
2013-08-16 02:16:00,74.7,70.2,29.85,ENE,75,0.0,0.0,86,0.00,,,0.00,Wunderground v.1.15,2013-08-16 07:16:00,
2013-08-16 02:17:00,74.7,70.2,29.85,ENE,75,0.0,0.0,86,0.00,,,0.00,Wunderground v.1.15,2013-08-16 07:17:00,
2013-08-16 02:21:00,74.7,70.2,29.85,ENE,75,0.0,0.0,86,0.00,,,0.00,Wunderground v.1.15,2013-08-16 07:21:00,
2013-08-16 02:22:00,74.7,70.2,29.85,ENE,75,0.0,0.0,86,0.00,,,0.00,Wunderground v.1.15,2013-08-16 07:22:00,
2013-08-16 02:26:00,74.7,70.2,29.85,ENE,75,0.0,0.0,86,0.00,,,0.00,Wunderground v.1.15,2013-08-16 07:26:00,
2013-08-16 02:27:00,74.7,70.2,29.85,ENE,75,0.0,0.0,86,0.00,,,0.00,Wunderground v.1.15,2013-08-16 07:27:00,
2013-08-16 02:29:00,74.7,70.2,29.85,ENE,75,0.0,0.0,86,0.00,,,0.00,Wunderground v.1.15,2013-08-16 07:29:00,
2013-08-16 02:32:00,74.7,70.2,29.84,ENE,75,0.0,0.0,86,0.00,,,0.00,Wunderground v.1.15,2013-08-16 07:32:00,
2013-08-16 02:33:00,74.7,70.2,29.84,ENE,75,0.0,0.0,86,0.00,,,0.00,Wunderground v.1.15,2013-08-16 07:33:00,
2013-08-16 02:35:00,74.7,70.2,29.84,ENE,75,0.0,0.0,86,0.00,,,0.00,Wunderground v.1.15,2013-08-16 07:35:00,
2013-08-16 02:36:00,74.7,70.2,29.84,ENE,75,0.0,0.0,86,0.00,,,0.00,Wunderground v.1.15,2013-08-16 07:36:00,
2013-08-16 02:39:00,74.7,70.2,29.84,ENE,75,0.0,0.0,86,0.00,,,0.00,Wunderground v.1.15,2013-08-16 07:39:00,
2013-08-16 02:40:00,74.7,70.2,29.84,ENE,75,0.0,0.0,86,0.00,,,0.00,Wunderground v.1.15,2013-08-16 07:40:00,
2013-08-16 02:42:00,74.7,70.2,29.84,ENE,75,0.0,0.0,86,0.00,,,0.00,Wunderground v.1.15,2013-08-16 07:42:00,
2013-08-16 02:44:00,74.7,70.2,29.84,ENE,75,0.0,0.0,86,0.00,,,0.00,Wunderground v.1.15,2013-08-16 07:44:00,
2013-08-16 02:46:00,74.6,70.1,29.84,ENE,75,0.0,0.0,86,0.00,,,0.00,Wunderground v.1.15,2013-08-16 07:46:00,
2013-08-16 02:49:00,74.6,70.5,29.84,ENE,76,0.0,0.0,87,0.00,,,0.00,Wunderground v.1.15,2013-08-16 07:49:00,
2013-08-16 02:50:00,74.6,70.5,29.84,ENE,76,0.0,0.0,87,0.00,,,0.00,Wunderground v.1.15,2013-08-16 07:50:00,
2013-08-16 02:51:00,74.6,70.5,29.84,ENE,76,0.0,0.0,87,0.00,,,0.00,Wunderground v.1.15,2013-08-16 07:51:00,
2013-08-16 02:52:00,74.6,70.5,29.84,ENE,76,0.0,0.0,87,0.00,,,0.00,Wunderground v.1.15,2013-08-16 07:52:00,
2013-08-16 02:56:00,74.6,70.5,29.84,South,171,0.0,1.0,87,0.00,,,0.00,Wunderground v.1.15,2013-08-16 07:56:00,
2013-08-16 02:59:00,74.6,70.5,29.84,South,171,0.0,1.0,87,0.00,,,0.00,Wunderground v.1.15,2013-08-16 07:59:00,
2013-08-16 03:02:00,74.6,70.5,29.84,South,171,0.0,1.0,87,0.00,,,0.00,Wunderground v.1.15,2013-08-16 08:02:00,
2013-08-16 03:03:00,74.4,70.3,29.84,South,171,0.0,1.0,87,0.00,,,0.00,Wunderground v.1.15,2013-08-16 08:03:00,
2013-08-16 03:05:00,74.4,70.3,29.84,South,171,0.0,1.0,87,0.00,,,0.00,Wunderground v.1.15,2013-08-16 08:05:00,
2013-08-16 03:07:00,74.4,70.3,29.84,South,171,0.0,1.0,87,0.00,,,0.00,Wunderground v.1.15,2013-08-16 08:07:00,
2013-08-16 03:09:00,74.4,70.3,29.84,South,171,0.0,1.0,87,0.00,,,0.00,Wunderground v.1.15,2013-08-16 08:09:00,
2013-08-16 03:10:00,74.4,70.3,29.84,South,171,0.0,1.0,87,0.00,,,0.00,Wunderground v.1.15,2013-08-16 08:10:00,
2013-08-16 03:11:00,74.4,70.3,29.84,South,171,0.0,1.0,87,0.00,,,0.00,Wunderground v.1.15,2013-08-16 08:11:00,
2013-08-16 03:12:00,74.4,70.3,29.84,South,171,0.0,1.0,87,0.00,,,0.00,Wunderground v.1.15,2013-08-16 08:12:00,
2013-08-16 03:15:00,74.4,70.3,29.84,South,171,0.0,1.0,87,0.00,,,0.00,Wunderground v.1.15,2013-08-16 08:15:00,
2013-08-16 03:16:00,74.4,70.3,29.84,South,172,0.0,1.0,87,0.00,,,0.00,Wunderground v.1.15,2013-08-16 08:16:00,
2013-08-16 03:17:00,74.4,70.3,29.83,South,172,0.0,1.0,87,0.00,,,0.00,Wunderground v.1.15,2013-08-16 08:17:00,
2013-08-16 03:22:00,74.4,70.3,29.83,South,172,0.0,0.0,87,0.00,,,0.00,Wunderground v.1.15,2013-08-16 08:22:00,
2013-08-16 03:25:00,74.4,70.3,29.83,South,172,0.0,1.0,87,0.00,,,0.00,Wunderground v.1.15,2013-08-16 08:25:00,
2013-08-16 03:26:00,74.4,70.3,29.83,South,172,0.0,1.0,87,0.00,,,0.00,Wunderground v.1.15,2013-08-16 08:26:00,
2013-08-16 03:29:00,74.4,70.3,29.83,South,172,0.0,2.0,87,0.00,,,0.00,Wunderground v.1.15,2013-08-16 08:29:00,
2013-08-16 03:32:00,74.4,70.3,29.83,South,172,0.0,2.0,87,0.00,,,0.00,Wunderground v.1.15,2013-08-16 08:32:00,
2013-08-16 03:33:00,74.4,70.3,29.83,South,172,0.0,2.0,87,0.00,,,0.00,Wunderground v.1.15,2013-08-16 08:33:00,
2013-08-16 03:34:00,74.4,70.3,29.83,South,172,0.0,2.0,87,0.00,,,0.00,Wunderground v.1.15,2013-08-16 08:34:00,
2013-08-16 03:37:00,74.4,70.3,29.83,South,172,0.0,2.0,87,0.00,,,0.00,Wunderground v.1.15,2013-08-16 08:37:00,
2013-08-16 03:41:00,74.4,70.3,29.83,South,174,0.0,2.0,87,0.00,,,0.00,Wunderground v.1.15,2013-08-16 08:41:00,
2013-08-16 03:42:00,74.4,70.3,29.83,South,174,0.0,2.0,87,0.00,,,0.00,Wunderground v.1.15,2013-08-16 08:42:00,
2013-08-16 03:44:00,74.4,70.3,29.83,South,174,0.0,3.0,87,0.00,,,0.00,Wunderground v.1.15,2013-08-16 08:44:00,
2013-08-16 03:45:00,74.4,70.3,29.83,South,174,1.0,3.0,87,0.00,,,0.00,Wunderground v.1.15,2013-08-16 08:45:00,
2013-08-16 03:46:00,74.4,70.3,29.83,South,174,1.0,3.0,87,0.00,,,0.00,Wunderground v.1.15,2013-08-16 08:46:00,
2013-08-16 03:49:00,74.4,70.3,29.83,South,174,1.0,1.0,87,0.00,,,0.00,Wunderground v.1.15,2013-08-16 08:49:00,
2013-08-16 03:50:00,74.4,70.3,29.83,South,174,1.0,1.0,87,0.00,,,0.00,Wunderground v.1.15,2013-08-16 08:50:00,
2013-08-16 03:53:00,74.4,70.3,29.83,South,174,1.0,1.0,87,0.00,,,0.00,Wunderground v.1.15,2013-08-16 08:53:00,
2013-08-16 03:56:00,74.4,70.3,29.83,South,174,0.0,1.0,87,0.00,,,0.00,Wunderground v.1.15,2013-08-16 08:56:00,
2013-08-16 03:57:00,74.4,70.3,29.83,South,174,0.0,1.0,87,0.00,,,0.00,Wunderground v.1.15,2013-08-16 08:57:00,
2013-08-16 03:59:00,74.4,70.3,29.83,South,174,0.0,0.0,87,0.00,,,0.00,Wunderground v.1.15,2013-08-16 08:59:00,
2013-08-16 04:03:00,74.4,70.3,29.83,South,174,0.0,0.0,87,0.00,,,0.00,Wunderground v.1.15,2013-08-16 09:03:00,
2013-08-16 04:05:00,74.4,70.3,29.83,South,174,0.0,0.0,87,0.00,,,0.00,Wunderground v.1.15,2013-08-16 09:05:00,
2013-08-16 04:07:00,74.4,70.3,29.83,South,174,0.0,0.0,87,0.00,,,0.00,Wunderground v.1.15,2013-08-16 09:07:00,
2013-08-16 04:09:00,74.4,70.3,29.83,South,174,0.0,0.0,87,0.00,,,0.00,Wunderground v.1.15,2013-08-16 09:09:00,
2013-08-16 04:10:00,74.4,70.3,29.83,South,174,0.0,0.0,87,0.00,,,0.00,Wunderground v.1.15,2013-08-16 09:10:00,
2013-08-16 04:13:00,74.4,70.3,29.83,South,174,0.0,0.0,87,0.00,,,0.00,Wunderground v.1.15,2013-08-16 09:13:00,
2013-08-16 04:14:00,74.4,70.3,29.83,South,174,0.0,0.0,87,0.00,,,0.00,Wunderground v.1.15,2013-08-16 09:14:00,
2013-08-16 04:16:00,74.6,70.5,29.83,South,174,0.0,0.0,87,0.00,,,0.00,Wunderground v.1.15,2013-08-16 09:16:00,
2013-08-16 04:18:00,74.6,70.5,29.85,South,174,0.0,0.0,87,0.00,,,0.00,Wunderground v.1.15,2013-08-16 09:18:00,
2013-08-16 04:20:00,74.6,70.5,29.85,South,174,0.0,0.0,87,0.00,,,0.00,Wunderground v.1.15,2013-08-16 09:20:00,
2013-08-16 04:21:00,74.6,70.5,29.85,South,174,0.0,0.0,87,0.00,,,0.00,Wunderground v.1.15,2013-08-16 09:21:00,
2013-08-16 04:24:00,74.6,70.5,29.85,South,174,0.0,0.0,87,0.00,,,0.00,Wunderground v.1.15,2013-08-16 09:24:00,
2013-08-16 04:26:00,74.6,70.5,29.85,South,174,0.0,0.0,87,0.00,,,0.00,Wunderground v.1.15,2013-08-16 09:26:00,
2013-08-16 04:29:00,74.6,70.5,29.85,South,174,0.0,0.0,87,0.00,,,0.00,Wunderground v.1.15,2013-08-16 09:29:00,
2013-08-16 04:31:00,74.4,70.3,29.85,South,174,0.0,0.0,87,0.00,,,0.00,Wunderground v.1.15,2013-08-16 09:31:00,
2013-08-16 04:33:00,74.4,70.3,29.85,South,174,0.0,0.0,87,0.00,,,0.00,Wunderground v.1.15,2013-08-16 09:33:00,
2013-08-16 04:36:00,74.4,70.3,29.85,South,174,0.0,0.0,87,0.00,,,0.00,Wunderground v.1.15,2013-08-16 09:36:00,
2013-08-16 04:38:00,74.4,70.3,29.85,South,174,0.0,0.0,87,0.00,,,0.00,Wunderground v.1.15,2013-08-16 09:38:00,
2013-08-16 04:39:00,74.4,70.3,29.85,South,174,0.0,0.0,87,0.00,,,0.00,Wunderground v.1.15,2013-08-16 09:39:00,
2013-08-16 04:41:00,74.4,70.3,29.85,South,174,0.0,0.0,87,0.00,,,0.00,Wunderground v.1.15,2013-08-16 09:41:00,
2013-08-16 04:42:00,74.4,70.3,29.85,South,174,0.0,0.0,87,0.00,,,0.00,Wunderground v.1.15,2013-08-16 09:42:00,
2013-08-16 04:44:00,74.4,70.3,29.85,South,174,0.0,0.0,87,0.00,,,0.00,Wunderground v.1.15,2013-08-16 09:44:00,
2013-08-16 04:48:00,74.2,70.1,29.85,South,174,0.0,0.0,87,0.00,,,0.00,Wunderground v.1.15,2013-08-16 09:48:00,
2013-08-16 04:49:00,74.2,70.1,29.85,South,174,0.0,0.0,87,0.00,,,0.00,Wunderground v.1.15,2013-08-16 09:49:00,
2013-08-16 04:53:00,74.2,70.1,29.85,South,174,0.0,0.0,87,0.00,,,0.00,Wunderground v.1.15,2013-08-16 09:53:00,
2013-08-16 04:54:00,74.2,70.1,29.85,South,174,0.0,0.0,87,0.00,,,0.00,Wunderground v.1.15,2013-08-16 09:54:00,
2013-08-16 04:56:00,74.2,70.1,29.85,South,174,0.0,0.0,87,0.00,,,0.00,Wunderground v.1.15,2013-08-16 09:56:00,
2013-08-16 04:57:00,74.2,70.1,29.85,South,174,0.0,0.0,87,0.00,,,0.00,Wunderground v.1.15,2013-08-16 09:57:00,
2013-08-16 04:59:00,74.0,70.2,29.85,South,174,0.0,0.0,88,0.00,,,0.00,Wunderground v.1.15,2013-08-16 09:59:00,
2013-08-16 05:02:00,74.0,70.2,29.85,South,172,0.0,0.0,88,0.00,,,0.00,Wunderground v.1.15,2013-08-16 10:02:00,
2013-08-16 05:05:00,74.0,70.2,29.85,South,172,0.0,0.0,88,0.00,,,0.00,Wunderground v.1.15,2013-08-16 10:05:00,
2013-08-16 05:07:00,74.0,70.2,29.85,South,172,0.0,0.0,88,0.00,,,0.00,Wunderground v.1.15,2013-08-16 10:07:00,
2013-08-16 05:11:00,74.0,70.2,29.85,South,172,0.0,0.0,88,0.00,,,0.00,Wunderground v.1.15,2013-08-16 10:11:00,
2013-08-16 05:13:00,74.0,70.2,29.85,South,172,0.0,0.0,88,0.00,,,0.00,Wunderground v.1.15,2013-08-16 10:13:00,
2013-08-16 05:14:00,74.0,70.2,29.85,South,172,0.0,0.0,88,0.00,,,0.00,Wunderground v.1.15,2013-08-16 10:14:00,
2013-08-16 05:18:00,74.0,70.2,29.85,South,172,0.0,0.0,88,0.00,,,0.00,Wunderground v.1.15,2013-08-16 10:18:00,
2013-08-16 05:20:00,73.9,70.1,29.85,South,172,0.0,0.0,88,0.00,,,0.00,Wunderground v.1.15,2013-08-16 10:20:00,
2013-08-16 05:23:00,73.9,70.1,29.85,South,172,0.0,0.0,88,0.00,,,0.00,Wunderground v.1.15,2013-08-16 10:23:00,
2013-08-16 05:25:00,73.9,70.1,29.85,South,172,0.0,0.0,88,0.00,,,0.00,Wunderground v.1.15,2013-08-16 10:25:00,
2013-08-16 05:26:00,73.9,70.1,29.85,South,172,0.0,0.0,88,0.00,,,0.00,Wunderground v.1.15,2013-08-16 10:26:00,
2013-08-16 05:28:00,73.7,69.9,29.85,South,172,0.0,0.0,88,0.00,,,0.00,Wunderground v.1.15,2013-08-16 10:28:00,
2013-08-16 05:31:00,73.7,69.9,29.85,South,172,0.0,0.0,88,0.00,,,0.00,Wunderground v.1.15,2013-08-16 10:31:00,
2013-08-16 05:33:00,73.7,69.9,29.85,South,172,0.0,0.0,88,0.00,,,0.00,Wunderground v.1.15,2013-08-16 10:33:00,
2013-08-16 05:34:00,73.7,69.9,29.85,South,172,0.0,0.0,88,0.00,,,0.00,Wunderground v.1.15,2013-08-16 10:34:00,
2013-08-16 05:35:00,73.5,69.7,29.85,South,172,0.0,0.0,88,0.00,,,0.00,Wunderground v.1.15,2013-08-16 10:35:00,
2013-08-16 05:36:00,73.5,69.7,29.85,South,172,0.0,0.0,88,0.00,,,0.00,Wunderground v.1.15,2013-08-16 10:36:00,
2013-08-16 05:38:00,73.5,70.1,29.85,South,172,0.0,0.0,89,0.00,,,0.00,Wunderground v.1.15,2013-08-16 10:38:00,
2013-08-16 05:40:00,73.5,70.1,29.85,South,172,0.0,0.0,89,0.00,,,0.00,Wunderground v.1.15,2013-08-16 10:40:00,
2013-08-16 05:41:00,73.5,70.1,29.85,South,172,0.0,0.0,89,0.00,,,0.00,Wunderground v.1.15,2013-08-16 10:41:00,
2013-08-16 05:44:00,73.5,70.1,29.85,South,172,0.0,0.0,89,0.00,,,0.00,Wunderground v.1.15,2013-08-16 10:44:00,
2013-08-16 05:45:00,73.5,70.1,29.85,South,172,0.0,0.0,89,0.00,,,0.00,Wunderground v.1.15,2013-08-16 10:45:00,
2013-08-16 05:48:00,73.3,69.9,29.85,South,172,0.0,0.0,89,0.00,,,0.00,Wunderground v.1.15,2013-08-16 10:48:00,
2013-08-16 05:49:00,73.3,69.9,29.85,South,172,0.0,0.0,89,0.00,,,0.00,Wunderground v.1.15,2013-08-16 10:49:00,
2013-08-16 05:51:00,73.3,69.9,29.85,South,172,0.0,0.0,89,0.00,,,0.00,Wunderground v.1.15,2013-08-16 10:51:00,
2013-08-16 05:52:00,73.3,69.9,29.85,South,172,0.0,0.0,89,0.00,,,0.00,Wunderground v.1.15,2013-08-16 10:52:00,
2013-08-16 05:57:00,73.3,69.9,29.85,South,172,0.0,0.0,89,0.00,,,0.00,Wunderground v.1.15,2013-08-16 10:57:00,
2013-08-16 06:01:00,73.3,69.9,29.85,South,172,0.0,0.0,89,0.00,,,0.00,Wunderground v.1.15,2013-08-16 11:01:00,
2013-08-16 06:02:00,73.3,69.9,29.84,South,172,0.0,0.0,89,0.00,,,0.00,Wunderground v.1.15,2013-08-16 11:02:00,
2013-08-16 06:05:00,73.3,69.9,29.84,South,172,0.0,0.0,89,0.00,,,0.00,Wunderground v.1.15,2013-08-16 11:05:00,
2013-08-16 06:07:00,73.3,69.9,29.84,South,172,0.0,0.0,89,0.00,,,0.00,Wunderground v.1.15,2013-08-16 11:07:00,
2013-08-16 06:09:00,73.3,69.9,29.84,South,172,0.0,0.0,89,0.00,,,0.00,Wunderground v.1.15,2013-08-16 11:09:00,
2013-08-16 06:10:00,73.3,69.9,29.84,South,172,0.0,0.0,89,0.00,,,0.00,Wunderground v.1.15,2013-08-16 11:10:00,
2013-08-16 06:14:00,73.2,69.8,29.84,South,172,0.0,0.0,89,0.00,,,0.00,Wunderground v.1.15,2013-08-16 11:14:00,
2013-08-16 06:15:00,73.2,69.8,29.84,South,172,0.0,0.0,89,0.00,,,0.00,Wunderground v.1.15,2013-08-16 11:15:00,
2013-08-16 06:16:00,73.2,69.8,29.84,South,172,0.0,0.0,89,0.00,,,0.00,Wunderground v.1.15,2013-08-16 11:16:00,
2013-08-16 06:19:00,73.0,69.6,29.85,South,172,0.0,0.0,89,0.00,,,0.00,Wunderground v.1.15,2013-08-16 11:19:00,
2013-08-16 06:21:00,73.0,69.9,29.85,South,172,0.0,0.0,90,0.00,,,0.00,Wunderground v.1.15,2013-08-16 11:21:00,
2013-08-16 06:22:00,73.0,69.9,29.85,South,172,0.0,0.0,90,0.00,,,0.00,Wunderground v.1.15,2013-08-16 11:22:00,
2013-08-16 06:26:00,73.0,69.9,29.85,South,172,0.0,0.0,90,0.00,,,0.00,Wunderground v.1.15,2013-08-16 11:26:00,
2013-08-16 06:27:00,73.0,69.9,29.85,South,172,0.0,0.0,90,0.00,,,0.00,Wunderground v.1.15,2013-08-16 11:27:00,
2013-08-16 06:31:00,73.0,69.9,29.85,South,172,0.0,0.0,90,0.00,,,0.00,Wunderground v.1.15,2013-08-16 11:31:00,
2013-08-16 06:33:00,73.0,69.9,29.85,South,172,0.0,0.0,90,0.00,,,0.00,Wunderground v.1.15,2013-08-16 11:33:00,
2013-08-16 06:36:00,73.0,69.9,29.85,South,172,0.0,0.0,90,0.00,,,0.00,Wunderground v.1.15,2013-08-16 11:36:00,
2013-08-16 06:37:00,73.0,69.9,29.85,South,172,0.0,0.0,90,0.00,,,0.00,Wunderground v.1.15,2013-08-16 11:37:00,
2013-08-16 06:40:00,73.0,69.9,29.85,South,172,0.0,0.0,90,0.00,,,0.00,Wunderground v.1.15,2013-08-16 11:40:00,
2013-08-16 06:41:00,73.0,69.9,29.85,South,172,0.0,0.0,90,0.00,,,0.00,Wunderground v.1.15,2013-08-16 11:41:00,
2013-08-16 06:42:00,73.0,69.9,29.85,South,172,0.0,0.0,90,0.00,,,0.00,Wunderground v.1.15,2013-08-16 11:42:00,
2013-08-16 06:43:00,73.0,69.9,29.85,South,172,0.0,0.0,90,0.00,,,0.00,Wunderground v.1.15,2013-08-16 11:43:00,
2013-08-16 06:46:00,73.0,69.9,29.85,South,172,0.0,0.0,90,0.00,,,0.00,Wunderground v.1.15,2013-08-16 11:46:00,
2013-08-16 06:47:00,73.0,69.9,29.85,South,172,0.0,0.0,90,0.00,,,0.00,Wunderground v.1.15,2013-08-16 11:47:00,
2013-08-16 06:50:00,73.0,69.9,29.85,South,172,0.0,0.0,90,0.00,,,0.00,Wunderground v.1.15,2013-08-16 11:50:00,
2013-08-16 06:52:00,73.0,69.9,29.85,South,172,0.0,0.0,90,0.00,,,0.00,Wunderground v.1.15,2013-08-16 11:52:00,
2013-08-16 06:54:00,73.0,69.9,29.85,South,172,0.0,0.0,90,0.00,,,0.00,Wunderground v.1.15,2013-08-16 11:54:00,
2013-08-16 06:56:00,73.0,69.9,29.85,South,172,0.0,0.0,90,0.00,,,0.00,Wunderground v.1.15,2013-08-16 11:56:00,
2013-08-16 06:59:00,73.0,69.9,29.85,South,172,0.0,0.0,90,0.00,,,0.00,Wunderground v.1.15,2013-08-16 11:59:00,
2013-08-16 07:01:00,73.0,69.9,29.85,South,172,0.0,0.0,90,0.00,,,0.00,Wunderground v.1.15,2013-08-16 12:01:00,
2013-08-16 07:02:00,73.0,69.9,29.86,South,172,0.0,0.0,90,0.00,,,0.00,Wunderground v.1.15,2013-08-16 12:02:00,
2013-08-16 07:05:00,73.0,69.9,29.86,South,172,0.0,0.0,90,0.00,,,0.00,Wunderground v.1.15,2013-08-16 12:05:00,
2013-08-16 07:09:00,73.0,69.9,29.86,South,172,0.0,0.0,90,0.00,,,0.00,Wunderground v.1.15,2013-08-16 12:09:00,
2013-08-16 07:10:00,73.0,69.9,29.86,South,172,0.0,0.0,90,0.00,,,0.00,Wunderground v.1.15,2013-08-16 12:10:00,
2013-08-16 07:12:00,73.0,70.2,29.86,South,172,0.0,0.0,91,0.00,,,0.00,Wunderground v.1.15,2013-08-16 12:12:00,
2013-08-16 07:15:00,73.0,70.2,29.86,South,172,0.0,0.0,91,0.00,,,0.00,Wunderground v.1.15,2013-08-16 12:15:00,
2013-08-16 07:16:00,73.0,70.2,29.86,South,172,0.0,0.0,91,0.00,,,0.00,Wunderground v.1.15,2013-08-16 12:16:00,
2013-08-16 07:17:00,73.0,70.2,29.86,South,172,0.0,0.0,91,0.00,,,0.00,Wunderground v.1.15,2013-08-16 12:17:00,
2013-08-16 07:19:00,73.0,70.2,29.86,South,172,0.0,0.0,91,0.00,,,0.00,Wunderground v.1.15,2013-08-16 12:19:00,
2013-08-16 07:22:00,73.0,70.2,29.86,South,172,0.0,0.0,91,0.00,,,0.00,Wunderground v.1.15,2013-08-16 12:22:00,
2013-08-16 07:23:00,73.2,70.4,29.86,South,172,0.0,0.0,91,0.00,,,0.00,Wunderground v.1.15,2013-08-16 12:23:00,
2013-08-16 07:27:00,73.2,70.4,29.86,South,172,0.0,0.0,91,0.00,,,0.00,Wunderground v.1.15,2013-08-16 12:27:00,
2013-08-16 07:29:00,73.2,70.4,29.86,South,172,0.0,0.0,91,0.00,,,0.00,Wunderground v.1.15,2013-08-16 12:29:00,
2013-08-16 07:32:00,73.3,70.5,29.86,South,172,0.0,0.0,91,0.00,,,0.00,Wunderground v.1.15,2013-08-16 12:32:00,
2013-08-16 07:34:00,73.3,70.5,29.86,South,172,0.0,0.0,91,0.00,,,0.00,Wunderground v.1.15,2013-08-16 12:34:00,
2013-08-16 07:35:00,73.5,70.7,29.86,South,172,0.0,0.0,91,0.00,,,0.00,Wunderground v.1.15,2013-08-16 12:35:00,
2013-08-16 07:36:00,73.5,70.7,29.86,South,172,0.0,0.0,91,0.00,,,0.00,Wunderground v.1.15,2013-08-16 12:36:00,
2013-08-16 07:39:00,73.7,70.9,29.86,South,172,0.0,0.0,91,0.00,,,0.00,Wunderground v.1.15,2013-08-16 12:39:00,
2013-08-16 07:40:00,73.7,70.9,29.86,South,172,0.0,0.0,91,0.00,,,0.00,Wunderground v.1.15,2013-08-16 12:40:00,
2013-08-16 07:42:00,73.7,70.9,29.86,South,172,0.0,0.0,91,0.00,,,0.00,Wunderground v.1.15,2013-08-16 12:42:00,
2013-08-16 07:43:00,73.9,71.1,29.86,South,172,0.0,0.0,91,0.00,,,0.00,Wunderground v.1.15,2013-08-16 12:43:00,
2013-08-16 07:49:00,74.0,71.2,29.86,South,172,0.0,0.0,91,0.00,,,0.00,Wunderground v.1.15,2013-08-16 12:49:00,
2013-08-16 07:50:00,74.2,71.4,29.86,South,172,0.0,0.0,91,0.00,,,0.00,Wunderground v.1.15,2013-08-16 12:50:00,
2013-08-16 07:51:00,74.2,71.1,29.86,South,172,0.0,0.0,90,0.00,,,0.00,Wunderground v.1.15,2013-08-16 12:51:00,
2013-08-16 07:52:00,74.2,71.1,29.86,South,172,0.0,1.0,90,0.00,,,0.00,Wunderground v.1.15,2013-08-16 12:52:00,
2013-08-16 07:55:00,74.2,71.1,29.86,ESE,112,1.0,2.0,90,0.00,,,0.00,Wunderground v.1.15,2013-08-16 12:55:00,
2013-08-16 07:56:00,74.2,71.1,29.86,ESE,112,1.0,2.0,90,0.00,,,0.00,Wunderground v.1.15,2013-08-16 12:56:00,
2013-08-16 07:59:00,74.4,71.3,29.86,ESE,112,1.0,1.0,90,0.00,,,0.00,Wunderground v.1.15,2013-08-16 12:59:00,
2013-08-16 08:01:00,74.6,71.5,29.86,ESE,112,1.0,1.0,90,0.00,,,0.00,Wunderground v.1.15,2013-08-16 13:01:00,
2013-08-16 08:02:00,74.6,71.1,29.86,East,79,1.0,2.0,89,0.00,,,0.00,Wunderground v.1.15,2013-08-16 13:02:00,
2013-08-16 08:05:00,74.6,71.1,29.86,East,79,1.0,2.0,89,0.00,,,0.00,Wunderground v.1.15,2013-08-16 13:05:00,
2013-08-16 08:06:00,74.6,71.1,29.86,East,79,1.0,2.0,89,0.00,,,0.00,Wunderground v.1.15,2013-08-16 13:06:00,
2013-08-16 08:09:00,74.6,71.1,29.86,East,79,1.0,1.0,89,0.00,,,0.00,Wunderground v.1.15,2013-08-16 13:09:00,
2013-08-16 08:12:00,74.7,71.2,29.86,East,79,1.0,2.0,89,0.00,,,0.00,Wunderground v.1.15,2013-08-16 13:12:00,
2013-08-16 08:14:00,74.7,71.2,29.86,East,79,1.0,2.0,89,0.00,,,0.00,Wunderground v.1.15,2013-08-16 13:14:00,
2013-08-16 08:15:00,74.7,71.2,29.86,East,79,1.0,2.0,89,0.00,,,0.00,Wunderground v.1.15,2013-08-16 13:15:00,
2013-08-16 08:19:00,74.9,71.4,29.88,East,79,1.0,1.0,89,0.00,,,0.00,Wunderground v.1.15,2013-08-16 13:19:00,
2013-08-16 08:20:00,74.9,71.4,29.88,East,79,0.0,1.0,89,0.00,,,0.00,Wunderground v.1.15,2013-08-16 13:20:00,
2013-08-16 08:23:00,75.1,71.6,29.88,East,79,0.0,1.0,89,0.00,,,0.00,Wunderground v.1.15,2013-08-16 13:23:00,
2013-08-16 08:24:00,75.1,71.6,29.88,East,79,0.0,1.0,89,0.00,,,0.00,Wunderground v.1.15,2013-08-16 13:24:00,
2013-08-16 08:29:00,75.1,71.3,29.88,East,79,1.0,2.0,88,0.00,,,0.00,Wunderground v.1.15,2013-08-16 13:29:00,
2013-08-16 08:30:00,75.3,71.5,29.88,East,79,1.0,3.0,88,0.00,,,0.00,Wunderground v.1.15,2013-08-16 13:30:00,
2013-08-16 08:34:00,75.3,71.5,29.88,East,80,1.0,3.0,88,0.00,,,0.00,Wunderground v.1.15,2013-08-16 13:34:00,
2013-08-16 08:36:00,75.4,71.6,29.88,East,80,1.0,3.0,88,0.00,,,0.00,Wunderground v.1.15,2013-08-16 13:36:00,
2013-08-16 08:37:00,75.4,71.6,29.88,East,80,1.0,3.0,88,0.00,,,0.00,Wunderground v.1.15,2013-08-16 13:37:00,
2013-08-16 08:39:00,75.6,71.8,29.88,East,79,1.0,1.0,88,0.00,,,0.00,Wunderground v.1.15,2013-08-16 13:39:00,
2013-08-16 08:40:00,75.6,71.8,29.88,East,79,1.0,2.0,88,0.00,,,0.00,Wunderground v.1.15,2013-08-16 13:40:00,
2013-08-16 08:42:00,75.6,71.8,29.88,East,79,1.0,2.0,88,0.00,,,0.00,Wunderground v.1.15,2013-08-16 13:42:00,
2013-08-16 08:43:00,75.6,71.8,29.88,East,79,1.0,2.0,88,0.00,,,0.00,Wunderground v.1.15,2013-08-16 13:43:00,
2013-08-16 08:46:00,75.8,72.0,29.88,East,79,1.0,2.0,88,0.00,,,0.00,Wunderground v.1.15,2013-08-16 13:46:00,
2013-08-16 08:47:00,75.8,71.7,29.89,East,79,1.0,2.0,87,0.00,,,0.00,Wunderground v.1.15,2013-08-16 13:47:00,
2013-08-16 08:49:00,76.0,71.8,29.89,East,79,1.0,1.0,87,0.00,,,0.00,Wunderground v.1.15,2013-08-16 13:49:00,
2013-08-16 08:52:00,76.0,71.8,29.89,East,79,1.0,1.0,87,0.00,,,0.00,Wunderground v.1.15,2013-08-16 13:52:00,
2013-08-16 08:53:00,76.0,71.8,29.89,ENE,78,1.0,1.0,87,0.00,,,0.00,Wunderground v.1.15,2013-08-16 13:53:00,
2013-08-16 08:54:00,76.0,71.8,29.89,ENE,78,1.0,2.0,87,0.00,,,0.00,Wunderground v.1.15,2013-08-16 13:54:00,
2013-08-16 08:55:00,76.1,71.9,29.89,ENE,78,1.0,2.0,87,0.00,,,0.00,Wunderground v.1.15,2013-08-16 13:55:00,
2013-08-16 08:59:00,76.1,71.9,29.89,ENE,78,1.0,1.0,87,0.00,,,0.00,Wunderground v.1.15,2013-08-16 13:59:00,
2013-08-16 09:00:00,76.3,72.1,29.89,ENE,78,1.0,1.0,87,0.00,,,0.00,Wunderground v.1.15,2013-08-16 14:00:00,
2013-08-16 09:02:00,76.5,72.3,29.89,ENE,78,1.0,1.0,87,0.00,,,0.00,Wunderground v.1.15,2013-08-16 14:02:00,
2013-08-16 09:04:00,76.7,72.5,29.89,ENE,78,1.0,1.0,87,0.00,,,0.00,Wunderground v.1.15,2013-08-16 14:04:00,
2013-08-16 09:06:00,77.0,72.8,29.89,East,79,0.0,1.0,87,0.00,,,0.00,Wunderground v.1.15,2013-08-16 14:06:00,
2013-08-16 09:07:00,77.0,72.8,29.89,East,79,0.0,1.0,87,0.00,,,0.00,Wunderground v.1.15,2013-08-16 14:07:00,
2013-08-16 09:09:00,77.4,72.9,29.89,East,79,0.0,0.0,86,0.00,,,0.00,Wunderground v.1.15,2013-08-16 14:09:00,
2013-08-16 09:11:00,77.7,73.2,29.89,East,79,0.0,1.0,86,0.00,,,0.00,Wunderground v.1.15,2013-08-16 14:11:00,
2013-08-16 09:13:00,77.7,72.8,29.89,East,79,0.0,2.0,85,0.00,,,0.00,Wunderground v.1.15,2013-08-16 14:13:00,
2013-08-16 09:14:00,77.9,73.0,29.89,East,79,0.0,2.0,85,0.00,,,0.00,Wunderground v.1.15,2013-08-16 14:14:00,
2013-08-16 09:16:00,78.1,72.9,29.89,East,79,0.0,2.0,84,0.00,,,0.00,Wunderground v.1.15,2013-08-16 14:16:00,
2013-08-16 09:17:00,78.3,73.1,29.89,East,80,1.0,2.0,84,0.00,,,0.00,Wunderground v.1.15,2013-08-16 14:17:00,
2013-08-16 09:21:00,78.6,73.4,29.89,East,80,1.0,1.0,84,0.00,,,0.00,Wunderground v.1.15,2013-08-16 14:21:00,
2013-08-16 09:22:00,78.8,73.6,29.89,East,80,1.0,1.0,84,0.00,,,0.00,Wunderground v.1.15,2013-08-16 14:22:00,
2013-08-16 09:25:00,79.4,73.8,29.89,East,80,0.0,2.0,83,0.00,,,0.00,Wunderground v.1.15,2013-08-16 14:25:00,
2013-08-16 09:26:00,79.6,74.0,29.89,East,80,0.0,2.0,83,0.00,,,0.00,Wunderground v.1.15,2013-08-16 14:26:00,
2013-08-16 09:27:00,79.6,73.6,29.89,East,80,0.0,2.0,82,0.00,,,0.00,Wunderground v.1.15,2013-08-16 14:27:00,
2013-08-16 09:30:00,79.6,73.3,29.89,ESE,120,1.0,4.0,81,0.00,,,0.00,Wunderground v.1.15,2013-08-16 14:30:00,
2013-08-16 09:32:00,79.8,73.4,29.90,ESE,120,1.0,4.0,81,0.00,,,0.00,Wunderground v.1.15,2013-08-16 14:32:00,
2013-08-16 09:33:00,79.9,73.5,29.90,ESE,120,1.0,4.0,81,0.00,,,0.00,Wunderground v.1.15,2013-08-16 14:33:00,
2013-08-16 09:35:00,80.1,73.7,29.90,ESE,123,1.0,6.0,81,0.00,,,0.00,Wunderground v.1.15,2013-08-16 14:35:00,
2013-08-16 09:37:00,80.3,73.6,29.90,ESE,123,1.0,6.0,80,0.00,,,0.00,Wunderground v.1.15,2013-08-16 14:37:00,
2013-08-16 09:40:00,80.7,73.6,29.90,ESE,123,1.0,1.0,79,0.00,,,0.00,Wunderground v.1.15,2013-08-16 14:40:00,
2013-08-16 09:41:00,80.9,73.8,29.90,ESE,123,1.0,1.0,79,0.00,,,0.00,Wunderground v.1.15,2013-08-16 14:41:00,
2013-08-16 09:42:00,81.1,74.0,29.90,ESE,123,1.0,1.0,79,0.00,,,0.00,Wunderground v.1.15,2013-08-16 14:42:00,
2013-08-16 09:43:00,81.1,73.6,29.90,ESE,123,1.0,1.0,78,0.00,,,0.00,Wunderground v.1.15,2013-08-16 14:43:00,
2013-08-16 09:45:00,81.2,73.7,29.90,ESE,123,0.0,5.0,78,0.00,,,0.00,Wunderground v.1.15,2013-08-16 14:45:00,
2013-08-16 09:47:00,81.2,73.3,29.90,ESE,123,0.0,5.0,77,0.00,,,0.00,Wunderground v.1.15,2013-08-16 14:47:00,
2013-08-16 09:49:00,81.2,73.3,29.90,ESE,123,0.0,5.0,77,0.00,,,0.00,Wunderground v.1.15,2013-08-16 14:49:00,
2013-08-16 09:50:00,81.4,73.5,29.90,SE,124,0.0,0.0,77,0.00,,,0.00,Wunderground v.1.15,2013-08-16 14:50:00,
2013-08-16 09:53:00,81.8,73.5,29.90,SE,126,0.0,0.0,76,0.00,,,0.00,Wunderground v.1.15,2013-08-16 14:53:00,
2013-08-16 09:54:00,81.8,73.5,29.90,SE,126,0.0,2.0,76,0.00,,,0.00,Wunderground v.1.15,2013-08-16 14:54:00,
2013-08-16 09:55:00,81.8,73.5,29.90,SE,126,1.0,2.0,76,0.00,,,0.00,Wunderground v.1.15,2013-08-16 14:55:00,
2013-08-16 09:59:00,82.4,73.7,29.90,SE,128,0.0,1.0,75,0.00,,,0.00,Wunderground v.1.15,2013-08-16 14:59:00,
2013-08-16 10:00:00,82.4,73.7,29.90,SE,128,0.0,1.0,75,0.00,,,0.00,Wunderground v.1.15,2013-08-16 15:00:00,
2013-08-16 10:04:00,82.4,73.3,29.90,South,171,1.0,1.0,74,0.00,,,0.00,Wunderground v.1.15,2013-08-16 15:04:00,
2013-08-16 10:05:00,82.4,73.3,29.90,South,171,0.0,1.0,74,0.00,,,0.00,Wunderground v.1.15,2013-08-16 15:05:00,
2013-08-16 10:06:00,82.4,72.9,29.90,South,171,0.0,1.0,73,0.00,,,0.00,Wunderground v.1.15,2013-08-16 15:06:00,
2013-08-16 10:09:00,82.8,72.8,29.90,South,171,0.0,0.0,72,0.00,,,0.00,Wunderground v.1.15,2013-08-16 15:09:00,
2013-08-16 10:10:00,83.0,73.0,29.90,South,171,0.0,0.0,72,0.00,,,0.00,Wunderground v.1.15,2013-08-16 15:10:00,
2013-08-16 10:11:00,83.2,72.8,29.90,South,172,0.0,0.0,71,0.00,,,0.00,Wunderground v.1.15,2013-08-16 15:11:00,
2013-08-16 10:13:00,83.2,72.8,29.90,South,171,0.0,0.0,71,0.00,,,0.00,Wunderground v.1.15,2013-08-16 15:13:00,
2013-08-16 10:16:00,83.4,72.6,29.90,WSW,257,1.0,5.0,70,0.00,,,0.00,Wunderground v.1.15,2013-08-16 15:16:00,
2013-08-16 10:19:00,83.2,72.4,29.90,WSW,257,1.0,2.0,70,0.00,,,0.00,Wunderground v.1.15,2013-08-16 15:19:00,
2013-08-16 10:22:00,82.6,71.8,29.90,WSW,257,2.0,2.0,70,0.00,,,0.00,Wunderground v.1.15,2013-08-16 15:22:00,
2013-08-16 10:24:00,82.6,71.8,29.90,WSW,257,2.0,2.0,70,0.00,,,0.00,Wunderground v.1.15,2013-08-16 15:24:00,
2013-08-16 10:25:00,82.6,71.8,29.90,WSW,257,1.0,2.0,70,0.00,,,0.00,Wunderground v.1.15,2013-08-16 15:25:00,
2013-08-16 10:30:00,82.8,72.0,29.90,WNW,284,1.0,4.0,70,0.00,,,0.00,Wunderground v.1.15,2013-08-16 15:30:00,
2013-08-16 10:31:00,82.8,72.0,29.90,WNW,285,1.0,4.0,70,0.00,,,0.00,Wunderground v.1.15,2013-08-16 15:31:00,
2013-08-16 10:33:00,82.8,72.4,29.90,WNW,284,1.0,4.0,71,0.00,,,0.00,Wunderground v.1.15,2013-08-16 15:33:00,
2013-08-16 10:35:00,82.8,72.4,29.90,WNW,284,1.0,4.0,71,0.00,,,0.00,Wunderground v.1.15,2013-08-16 15:35:00,
2013-08-16 10:36:00,82.8,72.4,29.90,WNW,284,1.0,4.0,71,0.00,,,0.00,Wunderground v.1.15,2013-08-16 15:36:00,
2013-08-16 10:37:00,83.0,72.6,29.90,WNW,284,1.0,4.0,71,0.00,,,0.00,Wunderground v.1.15,2013-08-16 15:37:00,
2013-08-16 10:39:00,83.0,72.6,29.90,WNW,284,1.0,1.0,71,0.00,,,0.00,Wunderground v.1.15,2013-08-16 15:39:00,
2013-08-16 10:42:00,83.6,72.3,29.90,WNW,284,0.0,1.0,69,0.00,,,0.00,Wunderground v.1.15,2013-08-16 15:42:00,
2013-08-16 10:44:00,83.8,72.5,29.90,WNW,285,0.0,3.0,69,0.00,,,0.00,Wunderground v.1.15,2013-08-16 15:44:00,
2013-08-16 10:45:00,84.0,72.7,29.90,WNW,284,0.0,3.0,69,0.00,,,0.00,Wunderground v.1.15,2013-08-16 15:45:00,
2013-08-16 10:46:00,84.0,72.7,29.90,WNW,284,0.0,3.0,69,0.00,,,0.00,Wunderground v.1.15,2013-08-16 15:46:00,
2013-08-16 10:47:00,84.0,72.7,29.91,WNW,284,0.0,3.0,69,0.00,,,0.00,Wunderground v.1.15,2013-08-16 15:47:00,
2013-08-16 10:50:00,84.3,72.6,29.91,WNW,284,0.0,0.0,68,0.00,,,0.00,Wunderground v.1.15,2013-08-16 15:50:00,
2013-08-16 10:51:00,84.5,72.8,29.91,WNW,284,0.0,0.0,68,0.00,,,0.00,Wunderground v.1.15,2013-08-16 15:51:00,
2013-08-16 10:53:00,84.9,72.7,29.91,WNW,285,0.0,3.0,67,0.00,,,0.00,Wunderground v.1.15,2013-08-16 15:53:00,
2013-08-16 10:56:00,85.1,72.5,29.91,NW,320,0.0,3.0,66,0.00,,,0.00,Wunderground v.1.15,2013-08-16 15:56:00,
2013-08-16 10:57:00,85.3,72.6,29.91,NW,320,0.0,3.0,66,0.00,,,0.00,Wunderground v.1.15,2013-08-16 15:57:00,
2013-08-16 10:59:00,85.5,72.8,29.91,NW,322,0.0,1.0,66,0.00,,,0.00,Wunderground v.1.15,2013-08-16 15:59:00,
2013-08-16 11:03:00,85.7,72.6,29.90,North,7,1.0,2.0,65,0.00,,,0.00,Wunderground v.1.15,2013-08-16 16:03:00,
2013-08-16 11:04:00,85.9,72.8,29.90,North,7,1.0,2.0,65,0.00,,,0.00,Wunderground v.1.15,2013-08-16 16:04:00,
2013-08-16 11:05:00,85.9,72.8,29.90,NW,318,1.0,4.0,65,0.00,,,0.00,Wunderground v.1.15,2013-08-16 16:05:00,
2013-08-16 11:06:00,85.9,72.3,29.90,NNW,333,1.0,4.0,64,0.00,,,0.00,Wunderground v.1.15,2013-08-16 16:06:00,
2013-08-16 11:07:00,85.9,72.3,29.90,NNW,333,1.0,4.0,64,0.00,,,0.00,Wunderground v.1.15,2013-08-16 16:07:00,
2013-08-16 11:12:00,86.5,72.4,29.90,NNW,339,1.0,2.0,63,0.00,,,0.00,Wunderground v.1.15,2013-08-16 16:12:00,
2013-08-16 11:14:00,87.0,72.4,29.90,NNW,339,1.0,2.0,62,0.00,,,0.00,Wunderground v.1.15,2013-08-16 16:14:00,
2013-08-16 11:19:00,87.4,72.3,29.90,NNW,329,0.0,2.0,61,0.00,,,0.00,Wunderground v.1.15,2013-08-16 16:19:00,
2013-08-16 11:20:00,87.4,72.3,29.90,NNW,329,1.0,2.0,61,0.00,,,0.00,Wunderground v.1.15,2013-08-16 16:20:00,
2013-08-16 11:21:00,87.4,72.8,29.90,NNW,329,1.0,2.0,62,0.00,,,0.00,Wunderground v.1.15,2013-08-16 16:21:00,
2013-08-16 11:24:00,87.6,72.0,29.90,NNW,329,1.0,3.0,60,0.00,,,0.00,Wunderground v.1.15,2013-08-16 16:24:00,
2013-08-16 11:25:00,87.8,72.7,29.90,North,0,1.0,5.0,61,0.00,,,0.00,Wunderground v.1.15,2013-08-16 16:25:00,
2013-08-16 11:26:00,87.8,72.2,29.90,North,0,2.0,5.0,60,0.00,,,0.00,Wunderground v.1.15,2013-08-16 16:26:00,
2013-08-16 11:29:00,87.8,72.7,29.90,North,10,2.0,3.0,61,0.00,,,0.00,Wunderground v.1.15,2013-08-16 16:29:00,
2013-08-16 11:30:00,88.0,72.4,29.90,NNW,332,2.0,3.0,60,0.00,,,0.00,Wunderground v.1.15,2013-08-16 16:30:00,
2013-08-16 11:32:00,87.8,71.7,29.90,North,7,3.0,5.0,59,0.00,,,0.00,Wunderground v.1.15,2013-08-16 16:32:00,
2013-08-16 11:34:00,87.8,71.7,29.90,North,0,3.0,6.0,59,0.00,,,0.00,Wunderground v.1.15,2013-08-16 16:34:00,
2013-08-16 11:35:00,87.8,71.2,29.90,NNE,13,3.0,6.0,58,0.00,,,0.00,Wunderground v.1.15,2013-08-16 16:35:00,
2013-08-16 11:39:00,87.6,71.5,29.90,North,353,3.0,6.0,59,0.00,,,0.00,Wunderground v.1.15,2013-08-16 16:39:00,
2013-08-16 11:41:00,87.6,71.5,29.90,North,352,3.0,5.0,59,0.00,,,0.00,Wunderground v.1.15,2013-08-16 16:41:00,
2013-08-16 11:43:00,87.6,71.5,29.90,NNW,337,2.0,5.0,59,0.00,,,0.00,Wunderground v.1.15,2013-08-16 16:43:00,
2013-08-16 11:46:00,87.8,71.7,29.90,NNW,328,3.0,5.0,59,0.00,,,0.00,Wunderground v.1.15,2013-08-16 16:46:00,
2013-08-16 11:47:00,88.0,71.4,29.90,North,357,3.0,7.0,58,0.00,,,0.00,Wunderground v.1.15,2013-08-16 16:47:00,
2013-08-16 11:49:00,88.0,71.4,29.90,WNW,299,4.0,4.0,58,0.00,,,0.00,Wunderground v.1.15,2013-08-16 16:49:00,
2013-08-16 11:51:00,88.0,71.4,29.90,NW,315,5.0,9.0,58,0.00,,,0.00,Wunderground v.1.15,2013-08-16 16:51:00,
2013-08-16 11:52:00,87.8,71.2,29.90,NNW,339,6.0,9.0,58,0.00,,,0.00,Wunderground v.1.15,2013-08-16 16:52:00,
2013-08-16 11:53:00,87.8,71.2,29.90,NW,312,6.0,9.0,58,0.00,,,0.00,Wunderground v.1.15,2013-08-16 16:53:00,
2013-08-16 11:54:00,87.6,71.5,29.90,NNW,337,6.0,9.0,59,0.00,,,0.00,Wunderground v.1.15,2013-08-16 16:54:00,
2013-08-16 11:55:00,87.6,71.5,29.90,NNW,336,6.0,9.0,59,0.00,,,0.00,Wunderground v.1.15,2013-08-16 16:55:00,
2013-08-16 11:59:00,87.4,71.3,29.90,NE,35,6.0,6.0,59,0.00,,,0.00,Wunderground v.1.15,2013-08-16 16:59:00,
2013-08-16 12:00:00,87.4,71.3,29.90,North,354,6.0,10.0,59,0.00,,,0.00,Wunderground v.1.15,2013-08-16 17:00:00,
2013-08-16 12:02:00,87.4,71.3,29.91,North,0,6.0,10.0,59,0.00,,,0.00,Wunderground v.1.15,2013-08-16 17:02:00,
2013-08-16 12:03:00,87.4,70.8,29.91,NNW,336,7.0,10.0,58,0.00,,,0.00,Wunderground v.1.15,2013-08-16 17:03:00,
2013-08-16 12:04:00,87.0,70.9,29.91,NNW,328,7.0,10.0,59,0.00,,,0.00,Wunderground v.1.15,2013-08-16 17:04:00,
2013-08-16 12:07:00,85.1,71.1,29.91,NNE,24,10.0,17.0,63,0.00,,,0.00,Wunderground v.1.15,2013-08-16 17:07:00,
2013-08-16 12:08:00,84.5,71.4,29.91,North,0,10.0,17.0,65,0.00,,,0.00,Wunderground v.1.15,2013-08-16 17:08:00,
2013-08-16 12:09:00,84.5,71.4,29.91,NNW,330,11.0,11.0,65,0.00,,,0.00,Wunderground v.1.15,2013-08-16 17:09:00,
2013-08-16 12:10:00,84.3,71.2,29.91,North,356,11.0,11.0,65,0.00,,,0.00,Wunderground v.1.15,2013-08-16 17:10:00,
2013-08-16 12:11:00,84.3,71.2,29.91,North,0,12.0,12.0,65,0.00,,,0.00,Wunderground v.1.15,2013-08-16 17:11:00,
2013-08-16 12:16:00,84.5,71.0,29.91,North,359,10.0,12.0,64,0.00,,,0.00,Wunderground v.1.15,2013-08-16 17:16:00,
2013-08-16 12:17:00,84.5,71.4,29.91,North,11,10.0,12.0,65,0.00,,,0.00,Wunderground v.1.15,2013-08-16 17:17:00,
2013-08-16 12:18:00,84.5,71.0,29.91,North,0,9.0,12.0,64,0.00,,,0.00,Wunderground v.1.15,2013-08-16 17:18:00,
2013-08-16 12:21:00,84.5,70.5,29.91,WNW,302,9.0,12.0,63,0.00,,,0.00,Wunderground v.1.15,2013-08-16 17:21:00,
2013-08-16 12:22:00,84.3,70.3,29.91,North,0,9.0,12.0,63,0.00,,,0.00,Wunderground v.1.15,2013-08-16 17:22:00,
2013-08-16 12:27:00,84.3,70.3,29.91,NE,38,10.0,12.0,63,0.00,,,0.00,Wunderground v.1.15,2013-08-16 17:27:00,
2013-08-16 12:28:00,84.3,69.4,29.91,North,350,10.0,12.0,61,0.00,,,0.00,Wunderground v.1.15,2013-08-16 17:28:00,
2013-08-16 12:29:00,84.3,69.4,29.91,North,357,10.0,11.0,61,0.00,,,0.00,Wunderground v.1.15,2013-08-16 17:29:00,
2013-08-16 12:33:00,84.3,68.9,29.91,NNW,343,10.0,18.0,60,0.00,,,0.00,Wunderground v.1.15,2013-08-16 17:33:00,
2013-08-16 12:35:00,84.5,69.1,29.91,NNE,23,11.0,18.0,60,0.00,,,0.00,Wunderground v.1.15,2013-08-16 17:35:00,
2013-08-16 12:37:00,84.7,69.3,29.91,North,0,11.0,18.0,60,0.00,,,0.00,Wunderground v.1.15,2013-08-16 17:37:00,
2013-08-16 12:38:00,84.7,68.8,29.91,NE,55,11.0,18.0,59,0.00,,,0.00,Wunderground v.1.15,2013-08-16 17:38:00,
2013-08-16 12:39:00,84.7,68.8,29.91,NNE,23,11.0,11.0,59,0.00,,,0.00,Wunderground v.1.15,2013-08-16 17:39:00,
2013-08-16 12:40:00,84.7,68.8,29.91,North,11,11.0,12.0,59,0.00,,,0.00,Wunderground v.1.15,2013-08-16 17:40:00,
2013-08-16 12:41:00,84.7,68.8,29.91,North,0,11.0,12.0,59,0.00,,,0.00,Wunderground v.1.15,2013-08-16 17:41:00,
2013-08-16 12:44:00,84.9,69.5,29.91,North,0,10.0,12.0,60,0.00,,,0.00,Wunderground v.1.15,2013-08-16 17:44:00,
2013-08-16 12:45:00,85.1,69.2,29.91,North,1,10.0,12.0,59,0.00,,,0.00,Wunderground v.1.15,2013-08-16 17:45:00,
2013-08-16 12:46:00,85.3,69.3,29.91,NNW,330,9.0,12.0,59,0.00,,,0.00,Wunderground v.1.15,2013-08-16 17:46:00,
2013-08-16 12:48:00,85.7,69.7,29.90,North,0,9.0,12.0,59,0.00,,,0.00,Wunderground v.1.15,2013-08-16 17:48:00,
2013-08-16 12:51:00,86.1,70.1,29.90,North,10,7.0,9.0,59,0.00,,,0.00,Wunderground v.1.15,2013-08-16 17:51:00,
2013-08-16 12:52:00,86.3,69.3,29.90,NE,38,7.0,10.0,57,0.00,,,0.00,Wunderground v.1.15,2013-08-16 17:52:00,
2013-08-16 12:56:00,86.5,70.0,29.90,NNE,23,7.0,12.0,58,0.00,,,0.00,Wunderground v.1.15,2013-08-16 17:56:00,
2013-08-16 12:58:00,86.7,69.6,29.90,North,0,6.0,6.0,57,0.00,,,0.00,Wunderground v.1.15,2013-08-16 17:58:00,
2013-08-16 12:59:00,86.7,69.6,29.90,North,0,6.0,6.0,57,0.00,,,0.00,Wunderground v.1.15,2013-08-16 17:59:00,
2013-08-16 13:01:00,86.7,69.1,29.90,NNE,27,6.0,8.0,56,0.00,,,0.00,Wunderground v.1.15,2013-08-16 18:01:00,
2013-08-16 13:02:00,86.7,69.1,29.89,NNW,343,6.0,8.0,56,0.00,,,0.00,Wunderground v.1.15,2013-08-16 18:02:00,
2013-08-16 13:04:00,86.7,69.1,29.89,North,0,6.0,8.0,56,0.00,,,0.00,Wunderground v.1.15,2013-08-16 18:04:00,
2013-08-16 13:05:00,87.0,69.9,29.89,NNE,25,6.0,11.0,57,0.00,,,0.00,Wunderground v.1.15,2013-08-16 18:05:00,
2013-08-16 13:08:00,87.0,69.4,29.89,NNE,21,7.0,11.0,56,0.00,,,0.00,Wunderground v.1.15,2013-08-16 18:08:00,
2013-08-16 13:09:00,87.2,69.6,29.89,North,0,6.0,11.0,56,0.00,,,0.00,Wunderground v.1.15,2013-08-16 18:09:00,
2013-08-16 13:11:00,87.4,69.8,29.89,NE,38,6.0,10.0,56,0.00,,,0.00,Wunderground v.1.15,2013-08-16 18:11:00,
2013-08-16 13:12:00,87.6,69.4,29.89,North,3,7.0,10.0,55,0.00,,,0.00,Wunderground v.1.15,2013-08-16 18:12:00,
2013-08-16 13:14:00,87.6,69.4,29.89,North,349,7.0,10.0,55,0.00,,,0.00,Wunderground v.1.15,2013-08-16 18:14:00,
2013-08-16 13:15:00,87.8,69.6,29.89,NNE,21,7.0,11.0,55,0.00,,,0.00,Wunderground v.1.15,2013-08-16 18:15:00,
2013-08-16 13:19:00,88.0,69.3,29.89,WNW,298,7.0,11.0,54,0.00,,,0.00,Wunderground v.1.15,2013-08-16 18:19:00,
2013-08-16 13:20:00,88.2,69.5,29.89,WNW,298,7.0,7.0,54,0.00,,,0.00,Wunderground v.1.15,2013-08-16 18:20:00,
2013-08-16 13:23:00,88.4,70.2,29.89,North,10,6.0,7.0,55,0.00,,,0.00,Wunderground v.1.15,2013-08-16 18:23:00,
2013-08-16 13:24:00,88.4,69.1,29.89,North,11,6.0,12.0,53,0.00,,,0.00,Wunderground v.1.15,2013-08-16 18:24:00,
2013-08-16 13:25:00,88.4,68.5,29.89,NNE,21,6.0,12.0,52,0.00,,,0.00,Wunderground v.1.15,2013-08-16 18:25:00,
2013-08-16 13:27:00,88.4,69.1,29.89,NNW,333,5.0,12.0,53,0.00,,,0.00,Wunderground v.1.15,2013-08-16 18:27:00,
2013-08-16 13:29:00,88.8,69.5,29.89,North,352,5.0,12.0,53,0.00,,,0.00,Wunderground v.1.15,2013-08-16 18:29:00,
2013-08-16 13:32:00,89.0,68.5,29.87,WNW,294,5.0,7.0,51,0.00,,,0.00,Wunderground v.1.15,2013-08-16 18:32:00,
2013-08-16 13:35:00,89.3,68.8,29.87,NNE,31,4.0,7.0,51,0.00,,,0.00,Wunderground v.1.15,2013-08-16 18:35:00,
2013-08-16 13:36:00,89.5,69.5,29.87,NW,308,4.0,7.0,52,0.00,,,0.00,Wunderground v.1.15,2013-08-16 18:36:00,
2013-08-16 13:37:00,89.5,69.0,29.87,NNW,339,4.0,7.0,51,0.00,,,0.00,Wunderground v.1.15,2013-08-16 18:37:00,
2013-08-16 13:41:00,89.7,68.6,29.87,North,11,4.0,4.0,50,0.00,,,0.00,Wunderground v.1.15,2013-08-16 18:41:00,
2013-08-16 13:42:00,89.9,68.8,29.87,North,356,4.0,4.0,50,0.00,,,0.00,Wunderground v.1.15,2013-08-16 18:42:00,
2013-08-16 13:43:00,89.9,68.8,29.87,North,349,3.0,5.0,50,0.00,,,0.00,Wunderground v.1.15,2013-08-16 18:43:00,
2013-08-16 13:47:00,89.9,68.8,29.86,North,357,3.0,5.0,50,0.00,,,0.00,Wunderground v.1.15,2013-08-16 18:47:00,
2013-08-16 13:49:00,89.9,68.2,29.86,WNW,301,3.0,5.0,49,0.00,,,0.00,Wunderground v.1.15,2013-08-16 18:49:00,
2013-08-16 13:51:00,89.9,68.2,29.86,NW,306,4.0,4.0,49,0.00,,,0.00,Wunderground v.1.15,2013-08-16 18:51:00,
2013-08-16 13:53:00,89.9,68.8,29.86,NW,311,4.0,4.0,50,0.00,,,0.00,Wunderground v.1.15,2013-08-16 18:53:00,
2013-08-16 13:55:00,90.1,68.4,29.86,NW,323,4.0,11.0,49,0.00,,,0.00,Wunderground v.1.15,2013-08-16 18:55:00,
2013-08-16 13:57:00,90.1,68.4,29.86,North,354,4.0,11.0,49,0.00,,,0.00,Wunderground v.1.15,2013-08-16 18:57:00,
2013-08-16 13:59:00,90.1,67.8,29.86,North,10,4.0,4.0,48,0.00,,,0.00,Wunderground v.1.15,2013-08-16 18:59:00,
2013-08-16 14:03:00,90.1,67.8,29.86,NNW,339,5.0,6.0,48,0.00,,,0.00,Wunderground v.1.15,2013-08-16 19:03:00,
2013-08-16 14:04:00,90.3,67.9,29.86,NW,315,5.0,6.0,48,0.00,,,0.00,Wunderground v.1.15,2013-08-16 19:04:00,
2013-08-16 14:05:00,90.5,68.1,29.86,North,349,4.0,6.0,48,0.00,,,0.00,Wunderground v.1.15,2013-08-16 19:05:00,
2013-08-16 14:07:00,90.5,67.5,29.86,NNW,347,4.0,6.0,47,0.00,,,0.00,Wunderground v.1.15,2013-08-16 19:07:00,
2013-08-16 14:08:00,90.5,68.1,29.86,NNW,347,4.0,6.0,48,0.00,,,0.00,Wunderground v.1.15,2013-08-16 19:08:00,
2013-08-16 14:09:00,91.0,68.0,29.86,WNW,288,3.0,6.0,47,0.00,,,0.00,Wunderground v.1.15,2013-08-16 19:09:00,
2013-08-16 14:13:00,91.4,68.3,29.86,NNE,27,3.0,10.0,47,0.00,,,0.00,Wunderground v.1.15,2013-08-16 19:13:00,
2013-08-16 14:14:00,91.4,67.1,29.86,NNE,31,3.0,10.0,45,0.00,,,0.00,Wunderground v.1.15,2013-08-16 19:14:00,
2013-08-16 14:15:00,91.4,67.1,29.86,NNE,24,4.0,10.0,45,0.00,,,0.00,Wunderground v.1.15,2013-08-16 19:15:00,
2013-08-16 14:18:00,91.2,66.9,29.84,NNW,335,4.0,10.0,45,0.00,,,0.00,Wunderground v.1.15,2013-08-16 19:18:00,
2013-08-16 14:19:00,91.2,67.5,29.84,WNW,298,4.0,4.0,46,0.00,,,0.00,Wunderground v.1.15,2013-08-16 19:19:00,
2013-08-16 14:22:00,91.4,67.7,29.84,WNW,298,4.0,4.0,46,0.00,,,0.00,Wunderground v.1.15,2013-08-16 19:22:00,
2013-08-16 14:25:00,91.8,66.8,29.84,SW,217,4.0,5.0,44,0.00,,,0.00,Wunderground v.1.15,2013-08-16 19:25:00,
2013-08-16 14:26:00,92.1,67.1,29.84,WSW,257,3.0,5.0,44,0.00,,,0.00,Wunderground v.1.15,2013-08-16 19:26:00,
2013-08-16 14:30:00,92.7,67.6,29.84,WSW,237,3.0,4.0,44,0.00,,,0.00,Wunderground v.1.15,2013-08-16 19:30:00,
2013-08-16 14:31:00,92.7,66.9,29.83,WSW,254,3.0,4.0,43,0.00,,,0.00,Wunderground v.1.15,2013-08-16 19:31:00,
2013-08-16 14:32:00,92.9,67.1,29.83,NW,326,3.0,6.0,43,0.00,,,0.00,Wunderground v.1.15,2013-08-16 19:32:00,
2013-08-16 14:35:00,92.7,65.6,29.83,NNW,344,3.0,6.0,41,0.00,,,0.00,Wunderground v.1.15,2013-08-16 19:35:00,
2013-08-16 14:36:00,92.7,65.6,29.83,North,0,3.0,6.0,41,0.00,,,0.00,Wunderground v.1.15,2013-08-16 19:36:00,
2013-08-16 14:42:00,93.2,66.0,29.83,WNW,294,3.0,3.0,41,0.00,,,0.00,Wunderground v.1.15,2013-08-16 19:42:00,
2013-08-16 14:43:00,93.6,64.2,29.83,NW,308,3.0,4.0,38,0.00,,,0.00,Wunderground v.1.15,2013-08-16 19:43:00,
2013-08-16 14:47:00,93.4,64.0,29.82,NW,305,3.0,7.0,38,0.00,,,0.00,Wunderground v.1.15,2013-08-16 19:47:00,
2013-08-16 14:49:00,93.4,64.7,29.82,NW,306,3.0,7.0,39,0.00,,,0.00,Wunderground v.1.15,2013-08-16 19:49:00,
2013-08-16 14:50:00,93.4,64.7,29.82,NW,305,3.0,3.0,39,0.00,,,0.00,Wunderground v.1.15,2013-08-16 19:50:00,
2013-08-16 14:54:00,93.8,65.1,29.82,West,278,4.0,7.0,39,0.00,,,0.00,Wunderground v.1.15,2013-08-16 19:54:00,
2013-08-16 14:55:00,94.0,65.3,29.82,NNW,328,4.0,7.0,39,0.00,,,0.00,Wunderground v.1.15,2013-08-16 19:55:00,
2013-08-16 14:57:00,94.0,64.5,29.82,West,272,3.0,7.0,38,0.00,,,0.00,Wunderground v.1.15,2013-08-16 19:57:00,
2013-08-16 14:59:00,94.3,64.8,29.82,WNW,282,4.0,6.0,38,0.00,,,0.00,Wunderground v.1.15,2013-08-16 19:59:00,
2013-08-16 15:00:00,94.3,64.0,29.82,West,280,4.0,6.0,37,0.00,,,0.00,Wunderground v.1.15,2013-08-16 20:00:00,
2013-08-16 15:02:00,94.0,64.5,29.80,West,270,4.0,6.0,38,0.00,,,0.00,Wunderground v.1.15,2013-08-16 20:02:00,
2013-08-16 15:06:00,94.3,64.8,29.80,WSW,258,3.0,6.0,38,0.00,,,0.00,Wunderground v.1.15,2013-08-16 20:06:00,
2013-08-16 15:07:00,94.3,64.8,29.80,WSW,258,3.0,6.0,38,0.00,,,0.00,Wunderground v.1.15,2013-08-16 20:07:00,
2013-08-16 15:09:00,94.3,64.0,29.80,South,176,3.0,3.0,37,0.00,,,0.00,Wunderground v.1.15,2013-08-16 20:09:00,
2013-08-16 15:11:00,94.5,65.0,29.80,SSW,192,3.0,3.0,38,0.00,,,0.00,Wunderground v.1.15,2013-08-16 20:11:00,
2013-08-16 15:13:00,94.9,64.6,29.80,SSW,192,2.0,3.0,37,0.00,,,0.00,Wunderground v.1.15,2013-08-16 20:13:00,
2013-08-16 15:14:00,94.9,63.0,29.80,NNW,335,2.0,5.0,35,0.00,,,0.00,Wunderground v.1.15,2013-08-16 20:14:00,
2013-08-16 15:19:00,94.7,63.6,29.79,West,263,3.0,5.0,36,0.00,,,0.00,Wunderground v.1.15,2013-08-16 20:19:00,
2013-08-16 15:20:00,94.5,63.4,29.79,WNW,288,3.0,7.0,36,0.00,,,0.00,Wunderground v.1.15,2013-08-16 20:20:00,
2013-08-16 15:22:00,93.8,63.6,29.79,West,272,5.0,9.0,37,0.00,,,0.00,Wunderground v.1.15,2013-08-16 20:22:00,
2013-08-16 15:24:00,93.4,63.2,29.79,WNW,292,5.0,9.0,37,0.00,,,0.00,Wunderground v.1.15,2013-08-16 20:24:00,
2013-08-16 15:25:00,93.4,63.2,29.79,WNW,292,5.0,9.0,37,0.00,,,0.00,Wunderground v.1.15,2013-08-16 20:25:00,
2013-08-16 15:26:00,93.2,63.1,29.79,West,263,5.0,9.0,37,0.00,,,0.00,Wunderground v.1.15,2013-08-16 20:26:00,
2013-08-16 15:27:00,92.9,62.8,29.79,West,260,5.0,9.0,37,0.00,,,0.00,Wunderground v.1.15,2013-08-16 20:27:00,
2013-08-16 15:29:00,92.9,62.8,29.79,West,260,5.0,5.0,37,0.00,,,0.00,Wunderground v.1.15,2013-08-16 20:29:00,
2013-08-16 15:32:00,92.9,63.6,29.79,WSW,256,4.0,7.0,38,0.00,,,0.00,Wunderground v.1.15,2013-08-16 20:32:00,
2013-08-16 15:33:00,92.9,63.6,29.79,WNW,294,4.0,8.0,38,0.00,,,0.00,Wunderground v.1.15,2013-08-16 20:33:00,
2013-08-16 15:34:00,92.7,62.6,29.79,West,272,4.0,8.0,37,0.00,,,0.00,Wunderground v.1.15,2013-08-16 20:34:00,
2013-08-16 15:35:00,92.7,63.4,29.79,West,271,4.0,8.0,38,0.00,,,0.00,Wunderground v.1.15,2013-08-16 20:35:00,
2013-08-16 15:36:00,92.9,63.6,29.79,West,271,4.0,8.0,38,0.00,,,0.00,Wunderground v.1.15,2013-08-16 20:36:00,
2013-08-16 15:40:00,92.9,62.0,29.79,WSW,256,4.0,4.0,36,0.00,,,0.00,Wunderground v.1.15,2013-08-16 20:40:00,
2013-08-16 15:43:00,92.9,62.0,29.79,WSW,251,4.0,5.0,36,0.00,,,0.00,Wunderground v.1.15,2013-08-16 20:43:00,
2013-08-16 15:44:00,92.9,62.0,29.79,WSW,253,3.0,5.0,36,0.00,,,0.00,Wunderground v.1.15,2013-08-16 20:44:00,
2013-08-16 15:45:00,92.9,62.0,29.79,WSW,254,3.0,5.0,36,0.00,,,0.00,Wunderground v.1.15,2013-08-16 20:45:00,
2013-08-16 15:46:00,92.9,62.8,29.78,West,281,3.0,5.0,37,0.00,,,0.00,Wunderground v.1.15,2013-08-16 20:46:00,
2013-08-16 15:49:00,92.9,62.8,29.78,WNW,291,3.0,7.0,37,0.00,,,0.00,Wunderground v.1.15,2013-08-16 20:49:00,
2013-08-16 15:50:00,92.9,63.6,29.78,WNW,289,4.0,4.0,38,0.00,,,0.00,Wunderground v.1.15,2013-08-16 20:50:00,
2013-08-16 15:51:00,92.9,62.8,29.78,WSW,256,3.0,6.0,37,0.00,,,0.00,Wunderground v.1.15,2013-08-16 20:51:00,
2013-08-16 15:55:00,92.9,62.8,29.78,WNW,282,4.0,6.0,37,0.00,,,0.00,Wunderground v.1.15,2013-08-16 20:55:00,
2013-08-16 15:56:00,92.9,62.8,29.78,WNW,301,4.0,6.0,37,0.00,,,0.00,Wunderground v.1.15,2013-08-16 20:56:00,
2013-08-16 15:57:00,92.9,62.8,29.78,WNW,301,4.0,6.0,37,0.00,,,0.00,Wunderground v.1.15,2013-08-16 20:57:00,
2013-08-16 16:00:00,93.2,62.3,29.78,WNW,301,3.0,4.0,36,0.00,,,0.00,Wunderground v.1.15,2013-08-16 21:00:00,
2013-08-16 16:02:00,93.2,62.3,29.78,WNW,301,3.0,4.0,36,0.00,,,0.00,Wunderground v.1.15,2013-08-16 21:02:00,
2013-08-16 16:03:00,93.2,62.3,29.78,WNW,301,3.0,4.0,36,0.00,,,0.00,Wunderground v.1.15,2013-08-16 21:03:00,
2013-08-16 16:04:00,93.4,62.5,29.78,WNW,301,1.0,4.0,36,0.00,,,0.00,Wunderground v.1.15,2013-08-16 21:04:00,
2013-08-16 16:09:00,94.0,63.0,29.78,WNW,301,0.0,0.0,36,0.00,,,0.00,Wunderground v.1.15,2013-08-16 21:09:00,
2013-08-16 16:10:00,94.3,62.4,29.78,WNW,301,0.0,1.0,35,0.00,,,0.00,Wunderground v.1.15,2013-08-16 21:10:00,
2013-08-16 16:11:00,94.3,62.4,29.78,WNW,301,0.0,1.0,35,0.00,,,0.00,Wunderground v.1.15,2013-08-16 21:11:00,
2013-08-16 16:15:00,94.9,63.0,29.78,NNW,330,1.0,4.0,35,0.00,,,0.00,Wunderground v.1.15,2013-08-16 21:15:00,
2013-08-16 16:16:00,94.9,63.0,29.78,WNW,302,1.0,6.0,35,0.00,,,0.00,Wunderground v.1.15,2013-08-16 21:16:00,
2013-08-16 16:17:00,94.9,62.1,29.78,WNW,302,1.0,6.0,34,0.00,,,0.00,Wunderground v.1.15,2013-08-16 21:17:00,
2013-08-16 16:19:00,95.1,63.1,29.78,WNW,298,2.0,6.0,35,0.00,,,0.00,Wunderground v.1.15,2013-08-16 21:19:00,
2013-08-16 16:23:00,95.1,60.6,29.78,WNW,299,3.0,6.0,32,0.00,,,0.00,Wunderground v.1.15,2013-08-16 21:23:00,
2013-08-16 16:24:00,95.4,61.7,29.78,WNW,285,3.0,6.0,33,0.00,,,0.00,Wunderground v.1.15,2013-08-16 21:24:00,
2013-08-16 16:25:00,95.4,61.7,29.78,NW,320,3.0,6.0,33,0.00,,,0.00,Wunderground v.1.15,2013-08-16 21:25:00,
2013-08-16 16:29:00,95.1,61.5,29.78,NNE,18,3.0,3.0,33,0.00,,,0.00,Wunderground v.1.15,2013-08-16 21:29:00,
2013-08-16 16:30:00,95.1,61.5,29.78,North,352,3.0,3.0,33,0.00,,,0.00,Wunderground v.1.15,2013-08-16 21:30:00,
2013-08-16 16:31:00,95.1,62.3,29.78,NW,323,3.0,3.0,34,0.00,,,0.00,Wunderground v.1.15,2013-08-16 21:31:00,
2013-08-16 16:34:00,94.9,62.1,29.78,NNE,31,4.0,11.0,34,0.00,,,0.00,Wunderground v.1.15,2013-08-16 21:34:00,
2013-08-16 16:37:00,95.1,62.3,29.78,NNW,339,3.0,11.0,34,0.00,,,0.00,Wunderground v.1.15,2013-08-16 21:37:00,
2013-08-16 16:39:00,95.1,61.5,29.78,NNW,342,3.0,3.0,33,0.00,,,0.00,Wunderground v.1.15,2013-08-16 21:39:00,
2013-08-16 16:43:00,95.1,61.5,29.78,North,356,2.0,3.0,33,0.00,,,0.00,Wunderground v.1.15,2013-08-16 21:43:00,
2013-08-16 16:46:00,95.6,61.0,29.78,ENE,59,2.0,3.0,32,0.00,,,0.00,Wunderground v.1.15,2013-08-16 21:46:00,
2013-08-16 16:47:00,95.6,61.0,29.77,ENE,59,1.0,3.0,32,0.00,,,0.00,Wunderground v.1.15,2013-08-16 21:47:00,
2013-08-16 16:49:00,95.9,61.3,29.77,ENE,59,1.0,3.0,32,0.00,,,0.00,Wunderground v.1.15,2013-08-16 21:49:00,
2013-08-16 16:51:00,96.1,61.5,29.77,ESE,116,1.0,4.0,32,0.00,,,0.00,Wunderground v.1.15,2013-08-16 21:51:00,
2013-08-16 16:52:00,96.1,61.5,29.77,East,96,1.0,5.0,32,0.00,,,0.00,Wunderground v.1.15,2013-08-16 21:52:00,
2013-08-16 16:54:00,95.9,61.3,29.77,East,93,2.0,5.0,32,0.00,,,0.00,Wunderground v.1.15,2013-08-16 21:54:00,
2013-08-16 16:56:00,95.6,61.0,29.77,ESE,102,3.0,5.0,32,0.00,,,0.00,Wunderground v.1.15,2013-08-16 21:56:00,
2013-08-16 16:57:00,95.6,61.0,29.77,East,95,3.0,5.0,32,0.00,,,0.00,Wunderground v.1.15,2013-08-16 21:57:00,
2013-08-16 17:02:00,95.9,61.3,29.78,North,0,3.0,6.0,32,0.00,,,0.00,Wunderground v.1.15,2013-08-16 22:02:00,
2013-08-16 17:03:00,95.9,60.4,29.78,NE,51,3.0,8.0,31,0.00,,,0.00,Wunderground v.1.15,2013-08-16 22:03:00,
2013-08-16 17:06:00,95.9,60.4,29.78,NNE,23,4.0,8.0,31,0.00,,,0.00,Wunderground v.1.15,2013-08-16 22:06:00,
2013-08-16 17:10:00,95.9,60.4,29.78,North,11,5.0,5.0,31,0.00,,,0.00,Wunderground v.1.15,2013-08-16 22:10:00,
2013-08-16 17:11:00,95.9,60.4,29.78,North,11,5.0,5.0,31,0.00,,,0.00,Wunderground v.1.15,2013-08-16 22:11:00,
2013-08-16 17:12:00,95.9,60.4,29.78,NNW,333,5.0,5.0,31,0.00,,,0.00,Wunderground v.1.15,2013-08-16 22:12:00,
2013-08-16 17:16:00,95.6,61.0,29.78,NNW,330,4.0,5.0,32,0.00,,,0.00,Wunderground v.1.15,2013-08-16 22:16:00,
2013-08-16 17:17:00,95.9,61.3,29.77,East,83,4.0,5.0,32,0.00,,,0.00,Wunderground v.1.15,2013-08-16 22:17:00,
2013-08-16 17:19:00,95.6,61.0,29.77,ENE,76,4.0,4.0,32,0.00,,,0.00,Wunderground v.1.15,2013-08-16 22:19:00,
2013-08-16 17:20:00,95.6,61.0,29.77,NE,42,4.0,6.0,32,0.00,,,0.00,Wunderground v.1.15,2013-08-16 22:20:00,
2013-08-16 17:22:00,95.6,61.9,29.77,NE,34,4.0,6.0,33,0.00,,,0.00,Wunderground v.1.15,2013-08-16 22:22:00,
2013-08-16 17:25:00,95.6,61.0,29.77,North,0,5.0,10.0,32,0.00,,,0.00,Wunderground v.1.15,2013-08-16 22:25:00,
2013-08-16 17:26:00,95.6,61.0,29.77,NNE,24,5.0,10.0,32,0.00,,,0.00,Wunderground v.1.15,2013-08-16 22:26:00,
2013-08-16 17:27:00,95.6,61.0,29.77,North,359,5.0,10.0,32,0.00,,,0.00,Wunderground v.1.15,2013-08-16 22:27:00,
2013-08-16 17:29:00,95.4,60.9,29.77,NNE,18,6.0,10.0,32,0.00,,,0.00,Wunderground v.1.15,2013-08-16 22:29:00,
2013-08-16 17:34:00,95.1,61.5,29.78,NNE,30,6.0,7.0,33,0.00,,,0.00,Wunderground v.1.15,2013-08-16 22:34:00,
2013-08-16 17:35:00,95.1,61.5,29.78,NE,35,6.0,7.0,33,0.00,,,0.00,Wunderground v.1.15,2013-08-16 22:35:00,
2013-08-16 17:36:00,95.1,61.5,29.78,North,354,6.0,7.0,33,0.00,,,0.00,Wunderground v.1.15,2013-08-16 22:36:00,
2013-08-16 17:37:00,95.1,61.5,29.78,North,0,6.0,7.0,33,0.00,,,0.00,Wunderground v.1.15,2013-08-16 22:37:00,
2013-08-16 17:40:00,95.1,60.6,29.78,North,0,5.0,7.0,32,0.00,,,0.00,Wunderground v.1.15,2013-08-16 22:40:00,
2013-08-16 17:41:00,95.1,60.6,29.78,NNW,332,5.0,7.0,32,0.00,,,0.00,Wunderground v.1.15,2013-08-16 22:41:00,
2013-08-16 17:43:00,94.9,60.4,29.78,NNE,31,5.0,9.0,32,0.00,,,0.00,Wunderground v.1.15,2013-08-16 22:43:00,
2013-08-16 17:44:00,94.9,61.3,29.78,North,357,5.0,9.0,33,0.00,,,0.00,Wunderground v.1.15,2013-08-16 22:44:00,
2013-08-16 17:49:00,94.3,60.8,29.78,North,0,5.0,6.0,33,0.00,,,0.00,Wunderground v.1.15,2013-08-16 22:49:00,
2013-08-16 17:53:00,94.0,60.5,29.78,North,356,6.0,10.0,33,0.00,,,0.00,Wunderground v.1.15,2013-08-16 22:53:00,
2013-08-16 17:54:00,94.0,60.5,29.78,ENE,64,6.0,10.0,33,0.00,,,0.00,Wunderground v.1.15,2013-08-16 22:54:00,
2013-08-16 17:56:00,94.3,61.6,29.78,NNE,18,7.0,10.0,34,0.00,,,0.00,Wunderground v.1.15,2013-08-16 22:56:00,
2013-08-16 17:59:00,94.3,60.8,29.78,NE,56,6.0,7.0,33,0.00,,,0.00,Wunderground v.1.15,2013-08-16 22:59:00,
2013-08-16 18:01:00,94.3,59.0,29.78,ENE,59,6.0,7.0,31,0.00,,,0.00,Wunderground v.1.15,2013-08-16 23:01:00,
2013-08-16 18:03:00,94.0,58.8,29.78,NNE,17,7.0,7.0,31,0.00,,,0.00,Wunderground v.1.15,2013-08-16 23:03:00,
2013-08-16 18:05:00,94.0,58.8,29.78,NE,40,6.0,8.0,31,0.00,,,0.00,Wunderground v.1.15,2013-08-16 23:05:00,
2013-08-16 18:07:00,94.3,59.0,29.78,North,357,6.0,8.0,31,0.00,,,0.00,Wunderground v.1.15,2013-08-16 23:07:00,
2013-08-16 18:09:00,94.3,59.0,29.78,NNE,17,6.0,11.0,31,0.00,,,0.00,Wunderground v.1.15,2013-08-16 23:09:00,
2013-08-16 18:10:00,94.3,59.0,29.78,NE,48,6.0,11.0,31,0.00,,,0.00,Wunderground v.1.15,2013-08-16 23:10:00,
2013-08-16 18:11:00,94.0,59.7,29.78,North,11,6.0,11.0,32,0.00,,,0.00,Wunderground v.1.15,2013-08-16 23:11:00,
2013-08-16 18:14:00,94.3,59.0,29.78,North,10,6.0,11.0,31,0.00,,,0.00,Wunderground v.1.15,2013-08-16 23:14:00,
2013-08-16 18:16:00,94.3,59.0,29.78,ENE,59,6.0,11.0,31,0.00,,,0.00,Wunderground v.1.15,2013-08-16 23:16:00,
2013-08-16 18:17:00,94.3,59.0,29.78,NE,41,6.0,11.0,31,0.00,,,0.00,Wunderground v.1.15,2013-08-16 23:17:00,
2013-08-16 18:19:00,94.3,59.0,29.78,North,0,6.0,8.0,31,0.00,,,0.00,Wunderground v.1.15,2013-08-16 23:19:00,
2013-08-16 18:22:00,94.0,58.8,29.78,North,353,5.0,8.0,31,0.00,,,0.00,Wunderground v.1.15,2013-08-16 23:22:00,
2013-08-16 18:23:00,94.0,57.8,29.78,North,0,5.0,8.0,30,0.00,,,0.00,Wunderground v.1.15,2013-08-16 23:23:00,
2013-08-16 18:26:00,94.3,57.2,29.78,North,0,5.0,8.0,29,0.00,,,0.00,Wunderground v.1.15,2013-08-16 23:26:00,
2013-08-16 18:30:00,94.5,55.4,29.78,NE,41,5.0,5.0,27,0.00,,,0.00,Wunderground v.1.15,2013-08-16 23:30:00,
2013-08-16 18:32:00,94.5,56.4,29.78,NNW,335,5.0,5.0,28,0.00,,,0.00,Wunderground v.1.15,2013-08-16 23:32:00,
2013-08-16 18:33:00,94.5,56.4,29.78,North,0,5.0,6.0,28,0.00,,,0.00,Wunderground v.1.15,2013-08-16 23:33:00,
2013-08-16 18:34:00,94.5,56.4,29.78,North,10,4.0,6.0,28,0.00,,,0.00,Wunderground v.1.15,2013-08-16 23:34:00,
2013-08-16 18:37:00,94.5,56.4,29.78,NNE,32,5.0,6.0,28,0.00,,,0.00,Wunderground v.1.15,2013-08-16 23:37:00,
2013-08-16 18:39:00,94.5,56.4,29.78,NE,48,4.0,4.0,28,0.00,,,0.00,Wunderground v.1.15,2013-08-16 23:39:00,
2013-08-16 18:40:00,94.5,56.4,29.78,North,11,4.0,5.0,28,0.00,,,0.00,Wunderground v.1.15,2013-08-16 23:40:00,
2013-08-16 18:41:00,94.5,55.4,29.78,NNE,27,4.0,5.0,27,0.00,,,0.00,Wunderground v.1.15,2013-08-16 23:41:00,
2013-08-16 18:42:00,94.5,56.4,29.78,North,0,4.0,6.0,28,0.00,,,0.00,Wunderground v.1.15,2013-08-16 23:42:00,
2013-08-16 18:44:00,94.5,56.4,29.78,NW,311,4.0,6.0,28,0.00,,,0.00,Wunderground v.1.15,2013-08-16 23:44:00,
2013-08-16 18:47:00,94.7,55.5,29.78,NW,311,4.0,6.0,27,0.00,,,0.00,Wunderground v.1.15,2013-08-16 23:47:00,
2013-08-16 18:49:00,94.9,54.7,29.78,North,357,4.0,4.0,26,0.00,,,0.00,Wunderground v.1.15,2013-08-16 23:49:00,
2013-08-16 18:50:00,94.9,54.7,29.78,North,10,4.0,10.0,26,0.00,,,0.00,Wunderground v.1.15,2013-08-16 23:50:00,
2013-08-16 18:51:00,94.9,53.6,29.78,NNE,14,5.0,10.0,25,0.00,,,0.00,Wunderground v.1.15,2013-08-16 23:51:00,
2013-08-16 18:54:00,94.5,54.3,29.78,NNW,330,5.0,10.0,26,0.00,,,0.00,Wunderground v.1.15,2013-08-16 23:54:00,
2013-08-16 18:55:00,94.5,54.3,29.78,NNW,335,4.0,10.0,26,0.00,,,0.00,Wunderground v.1.15,2013-08-16 23:55:00,
2013-08-16 18:56:00,94.5,54.3,29.78,North,354,4.0,10.0,26,0.00,,,0.00,Wunderground v.1.15,2013-08-16 23:56:00,
2013-08-16 19:00:00,94.5,54.3,29.78,NNE,27,4.0,5.0,26,0.00,,,0.00,Wunderground v.1.15,2013-08-17 00:00:00,
2013-08-16 19:01:00,94.7,54.5,29.78,NNE,20,3.0,5.0,26,0.00,,,0.00,Wunderground v.1.15,2013-08-17 00:01:00,
2013-08-16 19:02:00,94.7,54.5,29.78,NE,37,3.0,5.0,26,0.00,,,0.00,Wunderground v.1.15,2013-08-17 00:02:00,
2013-08-16 19:06:00,94.5,52.1,29.78,North,0,4.0,10.0,24,0.00,,,0.00,Wunderground v.1.15,2013-08-17 00:06:00,
2013-08-16 19:07:00,94.5,52.1,29.78,NNE,24,5.0,10.0,24,0.00,,,0.00,Wunderground v.1.15,2013-08-17 00:07:00,
2013-08-16 19:10:00,94.5,52.1,29.78,NNE,23,5.0,5.0,24,0.00,,,0.00,Wunderground v.1.15,2013-08-17 00:10:00,
2013-08-16 19:12:00,94.5,52.1,29.78,NNE,13,5.0,5.0,24,0.00,,,0.00,Wunderground v.1.15,2013-08-17 00:12:00,
2013-08-16 19:14:00,94.7,52.3,29.78,North,356,5.0,8.0,24,0.00,,,0.00,Wunderground v.1.15,2013-08-17 00:14:00,
2013-08-16 19:15:00,94.7,52.3,29.78,NNE,25,5.0,8.0,24,0.00,,,0.00,Wunderground v.1.15,2013-08-17 00:15:00,
2013-08-16 19:17:00,94.5,52.1,29.78,North,0,5.0,10.0,24,0.00,,,0.00,Wunderground v.1.15,2013-08-17 00:17:00,
2013-08-16 19:19:00,94.5,52.1,29.78,North,4,5.0,6.0,24,0.00,,,0.00,Wunderground v.1.15,2013-08-17 00:19:00,
2013-08-16 19:21:00,94.3,52.0,29.78,North,0,6.0,8.0,24,0.00,,,0.00,Wunderground v.1.15,2013-08-17 00:21:00,
2013-08-16 19:22:00,94.3,52.0,29.78,ENE,58,6.0,8.0,24,0.00,,,0.00,Wunderground v.1.15,2013-08-17 00:22:00,
2013-08-16 19:23:00,94.3,52.0,29.78,NNE,18,6.0,8.0,24,0.00,,,0.00,Wunderground v.1.15,2013-08-17 00:23:00,
2013-08-16 19:26:00,94.0,52.8,29.78,NNE,20,6.0,8.0,25,0.00,,,0.00,Wunderground v.1.15,2013-08-17 00:26:00,
2013-08-16 19:29:00,94.0,52.8,29.78,NE,35,5.0,5.0,25,0.00,,,0.00,Wunderground v.1.15,2013-08-17 00:29:00,
2013-08-16 19:31:00,94.0,53.9,29.78,North,357,5.0,6.0,26,0.00,,,0.00,Wunderground v.1.15,2013-08-17 00:31:00,
2013-08-16 19:32:00,94.0,53.9,29.78,NNE,14,5.0,6.0,26,0.00,,,0.00,Wunderground v.1.15,2013-08-17 00:32:00,
2013-08-16 19:35:00,93.8,54.8,29.78,NE,45,5.0,7.0,27,0.00,,,0.00,Wunderground v.1.15,2013-08-17 00:35:00,
2013-08-16 19:39:00,93.6,54.6,29.78,North,4,5.0,7.0,27,0.00,,,0.00,Wunderground v.1.15,2013-08-17 00:39:00,
2013-08-16 19:42:00,93.2,55.2,29.78,North,359,5.0,7.0,28,0.00,,,0.00,Wunderground v.1.15,2013-08-17 00:42:00,
2013-08-16 19:43:00,93.2,55.2,29.78,NNE,13,5.0,8.0,28,0.00,,,0.00,Wunderground v.1.15,2013-08-17 00:43:00,
2013-08-16 19:44:00,92.9,55.0,29.78,North,0,5.0,8.0,28,0.00,,,0.00,Wunderground v.1.15,2013-08-17 00:44:00,
2013-08-16 19:47:00,92.7,55.8,29.78,North,3,6.0,8.0,29,0.00,,,0.00,Wunderground v.1.15,2013-08-17 00:47:00,
2013-08-16 19:49:00,92.5,56.6,29.78,NE,38,6.0,8.0,30,0.00,,,0.00,Wunderground v.1.15,2013-08-17 00:49:00,
2013-08-16 19:50:00,92.3,56.4,29.78,North,0,6.0,7.0,30,0.00,,,0.00,Wunderground v.1.15,2013-08-17 00:50:00,
2013-08-16 19:51:00,92.3,56.4,29.78,North,357,6.0,7.0,30,0.00,,,0.00,Wunderground v.1.15,2013-08-17 00:51:00,
2013-08-16 19:54:00,91.8,56.0,29.78,NNE,20,5.0,7.0,30,0.00,,,0.00,Wunderground v.1.15,2013-08-17 00:54:00,
2013-08-16 19:56:00,91.6,55.8,29.78,North,0,6.0,7.0,30,0.00,,,0.00,Wunderground v.1.15,2013-08-17 00:56:00,
2013-08-16 19:59:00,91.2,55.4,29.78,NNE,16,5.0,9.0,30,0.00,,,0.00,Wunderground v.1.15,2013-08-17 00:59:00,
2013-08-16 20:02:00,91.0,56.2,29.79,NNE,31,6.0,9.0,31,0.00,,,0.00,Wunderground v.1.15,2013-08-17 01:02:00,
2013-08-16 20:05:00,90.7,56.8,29.79,NNW,330,6.0,9.0,32,0.00,,,0.00,Wunderground v.1.15,2013-08-17 01:05:00,
2013-08-16 20:06:00,90.5,56.6,29.79,North,0,6.0,9.0,32,0.00,,,0.00,Wunderground v.1.15,2013-08-17 01:06:00,
2013-08-16 20:07:00,90.5,56.6,29.79,North,4,6.0,9.0,32,0.00,,,0.00,Wunderground v.1.15,2013-08-17 01:07:00,
2013-08-16 20:11:00,90.1,56.3,29.79,North,0,5.0,5.0,32,0.00,,,0.00,Wunderground v.1.15,2013-08-17 01:11:00,
2013-08-16 20:12:00,90.1,57.1,29.79,NW,318,5.0,5.0,33,0.00,,,0.00,Wunderground v.1.15,2013-08-17 01:12:00,
2013-08-16 20:13:00,89.9,56.1,29.79,North,11,5.0,8.0,32,0.00,,,0.00,Wunderground v.1.15,2013-08-17 01:13:00,
2013-08-16 20:14:00,89.9,56.9,29.79,North,7,5.0,8.0,33,0.00,,,0.00,Wunderground v.1.15,2013-08-17 01:14:00,
2013-08-16 20:17:00,89.7,56.8,29.80,North,0,4.0,8.0,33,0.00,,,0.00,Wunderground v.1.15,2013-08-17 01:17:00,
2013-08-16 20:23:00,89.0,57.0,29.80,North,0,5.0,7.0,34,0.00,,,0.00,Wunderground v.1.15,2013-08-17 01:23:00,
2013-08-16 20:24:00,89.0,57.0,29.80,NNW,340,5.0,7.0,34,0.00,,,0.00,Wunderground v.1.15,2013-08-17 01:24:00,
2013-08-16 20:25:00,88.8,57.6,29.80,NNE,20,5.0,7.0,35,0.00,,,0.00,Wunderground v.1.15,2013-08-17 01:25:00,
2013-08-16 20:28:00,88.6,57.4,29.80,North,10,5.0,11.0,35,0.00,,,0.00,Wunderground v.1.15,2013-08-17 01:28:00,
2013-08-16 20:29:00,88.6,58.2,29.80,North,11,5.0,11.0,36,0.00,,,0.00,Wunderground v.1.15,2013-08-17 01:29:00,
2013-08-16 20:30:00,88.4,58.1,29.80,ENE,58,5.0,11.0,36,0.00,,,0.00,Wunderground v.1.15,2013-08-17 01:30:00,
2013-08-16 20:35:00,88.2,58.6,29.80,NNW,332,5.0,10.0,37,0.00,,,0.00,Wunderground v.1.15,2013-08-17 01:35:00,
2013-08-16 20:36:00,88.2,59.4,29.80,North,4,5.0,10.0,38,0.00,,,0.00,Wunderground v.1.15,2013-08-17 01:36:00,
2013-08-16 20:37:00,88.0,59.2,29.80,North,352,5.0,10.0,38,0.00,,,0.00,Wunderground v.1.15,2013-08-17 01:37:00,
2013-08-16 20:38:00,88.0,59.2,29.80,North,1,5.0,10.0,38,0.00,,,0.00,Wunderground v.1.15,2013-08-17 01:38:00,
2013-08-16 20:42:00,87.8,59.8,29.80,North,357,5.0,6.0,39,0.00,,,0.00,Wunderground v.1.15,2013-08-17 01:42:00,
2013-08-16 20:44:00,87.6,59.6,29.80,North,0,5.0,6.0,39,0.00,,,0.00,Wunderground v.1.15,2013-08-17 01:44:00,
2013-08-16 20:47:00,87.4,60.1,29.81,North,357,5.0,6.0,40,0.00,,,0.00,Wunderground v.1.15,2013-08-17 01:47:00,
2013-08-16 20:48:00,87.4,60.1,29.81,NNE,30,5.0,10.0,40,0.00,,,0.00,Wunderground v.1.15,2013-08-17 01:48:00,
2013-08-16 20:53:00,87.2,60.6,29.81,NNE,16,5.0,5.0,41,0.00,,,0.00,Wunderground v.1.15,2013-08-17 01:53:00,
2013-08-16 20:54:00,87.0,60.5,29.81,NNW,346,5.0,6.0,41,0.00,,,0.00,Wunderground v.1.15,2013-08-17 01:54:00,
2013-08-16 20:55:00,87.0,61.1,29.81,NNW,344,5.0,6.0,42,0.00,,,0.00,Wunderground v.1.15,2013-08-17 01:55:00,
2013-08-16 20:58:00,86.7,60.9,29.81,North,349,5.0,6.0,42,0.00,,,0.00,Wunderground v.1.15,2013-08-17 01:58:00,
2013-08-16 21:02:00,86.5,61.3,29.81,North,0,4.0,7.0,43,0.00,,,0.00,Wunderground v.1.15,2013-08-17 02:02:00,
2013-08-16 21:03:00,86.5,61.3,29.81,North,356,4.0,7.0,43,0.00,,,0.00,Wunderground v.1.15,2013-08-17 02:03:00,
2013-08-16 21:04:00,86.3,61.2,29.81,North,357,4.0,7.0,43,0.00,,,0.00,Wunderground v.1.15,2013-08-17 02:04:00,
2013-08-16 21:06:00,86.3,61.8,29.81,NNE,32,4.0,7.0,44,0.00,,,0.00,Wunderground v.1.15,2013-08-17 02:06:00,
2013-08-16 21:07:00,86.1,61.6,29.81,NE,45,4.0,7.0,44,0.00,,,0.00,Wunderground v.1.15,2013-08-17 02:07:00,
2013-08-16 21:08:00,86.1,61.6,29.81,North,3,4.0,7.0,44,0.00,,,0.00,Wunderground v.1.15,2013-08-17 02:08:00,
2013-08-16 21:09:00,86.1,62.3,29.81,North,4,4.0,7.0,45,0.00,,,0.00,Wunderground v.1.15,2013-08-17 02:09:00,
2013-08-16 21:12:00,85.9,62.1,29.81,North,0,5.0,6.0,45,0.00,,,0.00,Wunderground v.1.15,2013-08-17 02:12:00,
2013-08-16 21:14:00,85.7,61.9,29.81,NE,35,5.0,6.0,45,0.00,,,0.00,Wunderground v.1.15,2013-08-17 02:14:00,
2013-08-16 21:15:00,85.7,61.9,29.81,North,359,5.0,9.0,45,0.00,,,0.00,Wunderground v.1.15,2013-08-17 02:15:00,
2013-08-16 21:17:00,85.7,62.5,29.82,North,0,5.0,9.0,46,0.00,,,0.00,Wunderground v.1.15,2013-08-17 02:17:00,
2013-08-16 21:20:00,85.5,62.4,29.82,North,4,6.0,6.0,46,0.00,,,0.00,Wunderground v.1.15,2013-08-17 02:20:00,
2013-08-16 21:21:00,85.5,63.0,29.82,North,6,6.0,6.0,47,0.00,,,0.00,Wunderground v.1.15,2013-08-17 02:21:00,
2013-08-16 21:25:00,85.5,63.0,29.82,NNE,28,6.0,10.0,47,0.00,,,0.00,Wunderground v.1.15,2013-08-17 02:25:00,
2013-08-16 21:29:00,85.3,63.4,29.82,North,7,5.0,10.0,48,0.00,,,0.00,Wunderground v.1.15,2013-08-17 02:29:00,
2013-08-16 21:30:00,85.3,63.4,29.82,North,0,5.0,7.0,48,0.00,,,0.00,Wunderground v.1.15,2013-08-17 02:30:00,
2013-08-16 21:31:00,85.3,63.4,29.82,NE,34,5.0,7.0,48,0.00,,,0.00,Wunderground v.1.15,2013-08-17 02:31:00,
2013-08-16 21:32:00,85.1,63.2,29.82,NNW,344,6.0,8.0,48,0.00,,,0.00,Wunderground v.1.15,2013-08-17 02:32:00,
2013-08-16 21:34:00,85.1,63.2,29.82,NNE,23,6.0,8.0,48,0.00,,,0.00,Wunderground v.1.15,2013-08-17 02:34:00,
2013-08-16 21:36:00,84.9,63.0,29.82,NE,44,6.0,8.0,48,0.00,,,0.00,Wunderground v.1.15,2013-08-17 02:36:00,
2013-08-16 21:40:00,84.9,63.6,29.82,North,357,6.0,9.0,49,0.00,,,0.00,Wunderground v.1.15,2013-08-17 02:40:00,
2013-08-16 21:41:00,84.9,63.6,29.82,North,6,6.0,8.0,49,0.00,,,0.00,Wunderground v.1.15,2013-08-17 02:41:00,
2013-08-16 21:45:00,84.7,64.0,29.82,NNE,27,5.0,8.0,50,0.00,,,0.00,Wunderground v.1.15,2013-08-17 02:45:00,
2013-08-16 21:47:00,84.7,64.0,29.83,North,0,5.0,8.0,50,0.00,,,0.00,Wunderground v.1.15,2013-08-17 02:47:00,
2013-08-16 21:50:00,84.5,63.8,29.83,NNE,20,5.0,8.0,50,0.00,,,0.00,Wunderground v.1.15,2013-08-17 02:50:00,
2013-08-16 21:51:00,84.5,63.8,29.83,North,10,5.0,5.0,50,0.00,,,0.00,Wunderground v.1.15,2013-08-17 02:51:00,
2013-08-16 21:53:00,84.5,63.8,29.83,NNE,23,5.0,5.0,50,0.00,,,0.00,Wunderground v.1.15,2013-08-17 02:53:00,
2013-08-16 21:55:00,84.3,64.2,29.83,NNE,16,5.0,6.0,51,0.00,,,0.00,Wunderground v.1.15,2013-08-17 02:55:00,
2013-08-16 21:58:00,84.3,63.6,29.83,NE,34,5.0,10.0,50,0.00,,,0.00,Wunderground v.1.15,2013-08-17 02:58:00,
2013-08-16 22:00:00,84.3,63.6,29.83,NNE,32,5.0,5.0,50,0.00,,,0.00,Wunderground v.1.15,2013-08-17 03:00:00,
2013-08-16 22:01:00,84.3,63.6,29.83,North,3,5.0,5.0,50,0.00,,,0.00,Wunderground v.1.15,2013-08-17 03:01:00,
2013-08-16 22:02:00,84.1,63.5,29.84,North,6,5.0,6.0,50,0.00,,,0.00,Wunderground v.1.15,2013-08-17 03:02:00,
2013-08-16 22:06:00,84.1,63.5,29.84,NE,44,5.0,7.0,50,0.00,,,0.00,Wunderground v.1.15,2013-08-17 03:06:00,
2013-08-16 22:07:00,84.1,63.5,29.84,NE,47,5.0,7.0,50,0.00,,,0.00,Wunderground v.1.15,2013-08-17 03:07:00,
2013-08-16 22:10:00,84.0,63.4,29.84,North,10,4.0,5.0,50,0.00,,,0.00,Wunderground v.1.15,2013-08-17 03:10:00,
2013-08-16 22:12:00,84.0,63.4,29.84,NE,49,5.0,5.0,50,0.00,,,0.00,Wunderground v.1.15,2013-08-17 03:12:00,
2013-08-16 22:15:00,84.0,63.4,29.84,NNE,14,4.0,6.0,50,0.00,,,0.00,Wunderground v.1.15,2013-08-17 03:15:00,
2013-08-16 22:17:00,84.0,63.9,29.85,NE,38,4.0,6.0,51,0.00,,,0.00,Wunderground v.1.15,2013-08-17 03:17:00,
2013-08-16 22:20:00,83.8,63.7,29.85,North,356,4.0,6.0,51,0.00,,,0.00,Wunderground v.1.15,2013-08-17 03:20:00,
2013-08-16 22:21:00,83.8,63.7,29.85,North,356,4.0,4.0,51,0.00,,,0.00,Wunderground v.1.15,2013-08-17 03:21:00,
2013-08-16 22:22:00,83.8,63.7,29.85,NE,45,3.0,10.0,51,0.00,,,0.00,Wunderground v.1.15,2013-08-17 03:22:00,
2013-08-16 22:23:00,83.6,63.6,29.85,NNE,16,4.0,10.0,51,0.00,,,0.00,Wunderground v.1.15,2013-08-17 03:23:00,
2013-08-16 22:27:00,83.6,64.1,29.85,NNE,21,4.0,10.0,52,0.00,,,0.00,Wunderground v.1.15,2013-08-17 03:27:00,
2013-08-16 22:28:00,83.6,64.1,29.85,NE,49,5.0,10.0,52,0.00,,,0.00,Wunderground v.1.15,2013-08-17 03:28:00,
2013-08-16 22:30:00,83.4,63.9,29.85,NE,41,5.0,10.0,52,0.00,,,0.00,Wunderground v.1.15,2013-08-17 03:30:00,
2013-08-16 22:32:00,83.4,63.9,29.86,NE,35,4.0,5.0,52,0.00,,,0.00,Wunderground v.1.15,2013-08-17 03:32:00,
2013-08-16 22:35:00,83.2,63.7,29.86,NNE,28,4.0,6.0,52,0.00,,,0.00,Wunderground v.1.15,2013-08-17 03:35:00,
2013-08-16 22:39:00,83.0,63.6,29.86,NNE,18,3.0,6.0,52,0.00,,,0.00,Wunderground v.1.15,2013-08-17 03:39:00,
2013-08-16 22:40:00,83.0,63.6,29.86,NNE,27,3.0,6.0,52,0.00,,,0.00,Wunderground v.1.15,2013-08-17 03:40:00,
2013-08-16 22:45:00,82.8,63.9,29.86,NNE,25,4.0,8.0,53,0.00,,,0.00,Wunderground v.1.15,2013-08-17 03:45:00,
2013-08-16 22:46:00,82.8,63.9,29.86,North,1,4.0,8.0,53,0.00,,,0.00,Wunderground v.1.15,2013-08-17 03:46:00,
2013-08-16 22:48:00,82.6,63.7,29.86,NE,38,4.0,8.0,53,0.00,,,0.00,Wunderground v.1.15,2013-08-17 03:48:00,
2013-08-16 22:51:00,82.6,63.7,29.86,NE,42,4.0,5.0,53,0.00,,,0.00,Wunderground v.1.15,2013-08-17 03:51:00,
2013-08-16 22:54:00,82.6,63.7,29.86,NNE,20,4.0,9.0,53,0.00,,,0.00,Wunderground v.1.15,2013-08-17 03:54:00,
2013-08-16 22:56:00,82.4,63.5,29.86,NNE,25,4.0,9.0,53,0.00,,,0.00,Wunderground v.1.15,2013-08-17 03:56:00,
2013-08-16 23:01:00,82.4,63.5,29.86,NNE,28,4.0,6.0,53,0.00,,,0.00,Wunderground v.1.15,2013-08-17 04:01:00,
2013-08-16 23:02:00,82.4,63.5,29.87,NE,45,4.0,6.0,53,0.00,,,0.00,Wunderground v.1.15,2013-08-17 04:02:00,
2013-08-16 23:03:00,82.4,63.5,29.87,NNE,24,4.0,6.0,53,0.00,,,0.00,Wunderground v.1.15,2013-08-17 04:03:00,
2013-08-16 23:04:00,82.4,63.5,29.87,NNE,28,4.0,6.0,53,0.00,,,0.00,Wunderground v.1.15,2013-08-17 04:04:00,
2013-08-16 23:06:00,82.2,63.4,29.87,NE,40,4.0,6.0,53,0.00,,,0.00,Wunderground v.1.15,2013-08-17 04:06:00,
2013-08-16 23:07:00,82.2,63.4,29.87,NE,44,4.0,6.0,53,0.00,,,0.00,Wunderground v.1.15,2013-08-17 04:07:00,
2013-08-16 23:10:00,82.2,63.4,29.87,North,0,4.0,4.0,53,0.00,,,0.00,Wunderground v.1.15,2013-08-17 04:10:00,
2013-08-16 23:11:00,82.2,63.4,29.87,North,7,4.0,4.0,53,0.00,,,0.00,Wunderground v.1.15,2013-08-17 04:11:00,
2013-08-16 23:15:00,82.0,63.2,29.87,ENE,72,3.0,5.0,53,0.00,,,0.00,Wunderground v.1.15,2013-08-17 04:15:00,
2013-08-16 23:16:00,82.0,63.2,29.87,East,95,3.0,6.0,53,0.00,,,0.00,Wunderground v.1.15,2013-08-17 04:16:00,
2013-08-16 23:17:00,82.0,63.2,29.87,East,95,3.0,6.0,53,0.00,,,0.00,Wunderground v.1.15,2013-08-17 04:17:00,
2013-08-16 23:20:00,82.0,63.2,29.87,ENE,61,2.0,2.0,53,0.00,,,0.00,Wunderground v.1.15,2013-08-17 04:20:00,
2013-08-16 23:21:00,81.8,63.0,29.87,ENE,61,2.0,2.0,53,0.00,,,0.00,Wunderground v.1.15,2013-08-17 04:21:00,
2013-08-16 23:22:00,81.8,63.0,29.87,ENE,61,2.0,3.0,53,0.00,,,0.00,Wunderground v.1.15,2013-08-17 04:22:00,
2013-08-16 23:23:00,81.8,63.0,29.87,ENE,61,2.0,3.0,53,0.00,,,0.00,Wunderground v.1.15,2013-08-17 04:23:00,
2013-08-16 23:28:00,81.6,63.3,29.87,NE,52,2.0,6.0,54,0.00,,,0.00,Wunderground v.1.15,2013-08-17 04:28:00,
2013-08-16 23:30:00,81.6,63.3,29.87,NE,37,2.0,6.0,54,0.00,,,0.00,Wunderground v.1.15,2013-08-17 04:30:00,
2013-08-16 23:33:00,81.4,63.2,29.88,NNE,27,2.0,6.0,54,0.00,,,0.00,Wunderground v.1.15,2013-08-17 04:33:00,
2013-08-16 23:34:00,81.4,63.2,29.88,NE,42,2.0,6.0,54,0.00,,,0.00,Wunderground v.1.15,2013-08-17 04:34:00,
2013-08-16 23:35:00,81.4,63.2,29.88,NE,45,3.0,6.0,54,0.00,,,0.00,Wunderground v.1.15,2013-08-17 04:35:00,
2013-08-16 23:38:00,81.2,63.0,29.88,ENE,58,3.0,6.0,54,0.00,,,0.00,Wunderground v.1.15,2013-08-17 04:38:00,
2013-08-16 23:40:00,81.2,63.0,29.88,East,89,2.0,2.0,54,0.00,,,0.00,Wunderground v.1.15,2013-08-17 04:40:00,
2013-08-16 23:43:00,81.1,62.9,29.88,East,86,2.0,3.0,54,0.00,,,0.00,Wunderground v.1.15,2013-08-17 04:43:00,
2013-08-16 23:44:00,80.9,63.2,29.88,NNE,25,2.0,3.0,55,0.00,,,0.00,Wunderground v.1.15,2013-08-17 04:44:00,
2013-08-16 23:45:00,80.9,62.7,29.88,ENE,64,2.0,7.0,54,0.00,,,0.00,Wunderground v.1.15,2013-08-17 04:45:00,
2013-08-16 23:48:00,80.7,63.0,29.89,East,100,2.0,7.0,55,0.00,,,0.00,Wunderground v.1.15,2013-08-17 04:48:00,
2013-08-16 23:50:00,80.7,63.0,29.89,ENE,73,3.0,3.0,55,0.00,,,0.00,Wunderground v.1.15,2013-08-17 04:50:00,
2013-08-16 23:51:00,80.5,62.8,29.89,NE,55,3.0,3.0,55,0.00,,,0.00,Wunderground v.1.15,2013-08-17 04:51:00,
2013-08-16 23:53:00,80.5,62.8,29.89,ENE,76,3.0,6.0,55,0.00,,,0.00,Wunderground v.1.15,2013-08-17 04:53:00,
2013-08-16 23:55:00,80.5,62.8,29.89,East,95,3.0,6.0,55,0.00,,,0.00,Wunderground v.1.15,2013-08-17 04:55:00,